K3TXT Weather Reports


Display with metric or nautical units.
time (UTC)temp
F
wind
direction
speed
MPH
gust
MPH
rain 1hr
in
rain 24hr
in
rain mn
in
humidity
%
barometer
mb
20260505223817 71 221 4.0 9.0 0.00 0.00 0.00 100 1018.4
20260505223715 71 230 4.0 9.0 0.00 0.00 0.00 100 1018.4
20260505223615 71 221 4.0 8.0 0.00 0.00 0.00 100 1018.4
20260505223533 71 227 4.0 8.0 0.00 0.00 0.00 100 1018.4
20260505223517 71 219 4.0 8.0 0.00 0.00 0.00 100 1018.3
20260505223313 71 221 3.0 8.0 0.00 0.00 0.00 100 1018.3
20260505223213 72 225 3.0 8.0 0.00 0.00 0.00 100 1018.3
20260505223113 72 212 3.0 8.0 0.00 0.00 0.00 100 1018.3
20260505223013 72 211 3.0 8.0 0.00 0.00 0.00 100 1018.3
20260505222814 72 213 3.0 8.0 0.00 0.00 0.00 100 1018.3
20260505222714 72 206 3.0 6.0 0.00 0.00 0.00 100 1018.3
20260505222614 72 201 3.0 6.0 0.00 0.00 0.00 100 1018.3
20260505222514 72 199 3.0 6.0 0.00 0.00 0.00 100 1018.3
20260505222313 72 214 3.0 6.0 0.00 0.00 0.00 100 1018.3
20260505222211 72 213 3.0 6.0 0.00 0.00 0.00 100 1018.2
20260505222111 72 194 3.0 9.0 0.00 0.00 0.00 100 1018.2
20260505222012 72 165 3.0 9.0 0.00 0.00 0.00 100 1018.3
20260505221812 72 221 3.0 9.0 0.00 0.00 0.00 100 1018.3
20260505221711 72 221 3.0 9.0 0.00 0.00 0.00 100 1018.2
20260505221610 72 221 2.0 9.0 0.00 0.00 0.00 100 1018.3
20260505221511 72 221 2.0 9.0 0.00 0.00 0.00 100 1018.3
20260505221311 73 205 2.0 9.0 0.00 0.00 0.00 100 1018.2
20260505221212 73 214 2.0 9.0 0.00 0.00 0.00 100 1018.3
20260505221109 73 244 2.0 6.0 0.00 0.00 0.00 100 1018.2
20260505221009 73 222 2.0 6.0 0.00 0.00 0.00 100 1018.1
20260505220809 73 225 3.0 6.0 0.00 0.00 0.00 100 1018.2
20260505220709 73 214 3.0 6.0 0.00 0.00 0.00 100 1018.2
20260505220610 73 200 3.0 6.0 0.00 0.00 0.00 100 1018.2
20260505220510 73 199 3.0 8.0 0.00 0.00 0.00 100 1018.1
20260505220309 73 198 3.0 8.0 0.00 0.00 0.00 100 1018.2
20260505220209 73 145 3.0 8.0 0.00 0.00 0.00 100 1018.2
20260505220109 73 223 3.0 8.0 0.00 0.00 0.00 100 1018.2
20260505220008 73 223 3.0 8.0 0.00 0.00 0.00 100 1018.2
20260505215810 73 213 3.0 8.0 0.00 0.00 0.00 100 1018.2
20260505215710 73 219 3.0 8.0 0.00 0.00 0.00 100 1018.2
20260505215607 73 218 3.0 8.0 0.00 0.00 0.00 100 1018.1
20260505215527 73 98 3.0 8.0 0.00 0.00 0.00 100 1018.2
20260505215511 73 128 3.0 9.0 0.00 0.00 0.00 100 1018.2
20260505215308 73 203 3.0 9.0 0.00 0.00 0.00 100 1018.2
20260505215207 73 202 3.0 9.0 0.00 0.00 0.00 100 1018.2
20260505215108 73 202 4.0 9.0 0.00 0.00 0.00 100 1018.1
20260505215008 72 215 4.0 9.0 0.00 0.00 0.00 100 1018.2
20260505214808 72 215 4.0 9.0 0.00 0.00 0.00 100 1018.2
20260505214708 72 215 4.0 9.0 0.00 0.00 0.00 100 1018.2
20260505214609 73 226 4.0 9.0 0.00 0.00 0.00 100 1018.2
20260505214507 73 219 4.0 9.0 0.00 0.00 0.00 100 1018.3
20260505214307 73 217 4.0 8.0 0.00 0.00 0.00 100 1018.3
20260505214207 73 213 4.0 9.0 0.00 0.00 0.00 100 1018.3
20260505214108 73 213 4.0 9.0 0.00 0.00 0.00 100 1018.3
20260505214006 73 215 4.0 9.0 0.00 0.00 0.00 100 1018.3
20260505213806 73 223 4.0 9.0 0.00 0.00 0.00 100 1018.3
20260505213707 73 226 4.0 9.0 0.00 0.00 0.00 100 1018.3
20260505213608 73 223 4.0 9.0 0.00 0.00 0.00 100 1018.3
20260505213508 73 224 4.0 9.0 0.00 0.00 0.00 100 1018.3
20260505213307 73 206 4.0 9.0 0.00 0.00 0.00 100 1018.3
20260505213208 73 223 4.0 9.0 0.00 0.00 0.00 100 1018.3
20260505213108 73 213 4.0 9.0 0.00 0.00 0.00 100 1018.2
20260505213026 73 213 4.0 9.0 0.00 0.00 0.00 100 1018.1
20260505213011 73 211 4.0 9.0 0.00 0.00 0.00 100 1018.1
20260505212806 73 221 4.0 9.0 0.00 0.00 0.00 100 1018.0
20260505212708 73 177 4.0 9.0 0.00 0.00 0.00 100 1018.1
20260505212607 73 219 4.0 9.0 0.00 0.00 0.00 100 1018.0
20260505212508 73 215 4.0 9.0 0.00 0.00 0.00 100 1018.0
20260505212306 73 215 4.0 9.0 0.00 0.00 0.00 100 1018.0
20260505212208 73 214 4.0 9.0 0.00 0.00 0.00 100 1018.0
20260505212109 73 224 4.0 9.0 0.00 0.00 0.00 100 1018.0
20260505212007 73 235 4.0 10.0 0.00 0.00 0.00 100 1018.0
20260505211910 73 169 4.0 10.0 0.00 0.00 0.00 100 1018.0
20260505211807 73 173 4.0 10.0 0.00 0.00 0.00 100 1018.0
20260505211707 73 221 4.0 10.0 0.00 0.00 0.00 100 1018.0
20260505211608 73 175 4.0 10.0 0.00 0.00 0.00 100 1018.0
20260505211507 73 221 4.0 10.0 0.00 0.00 0.00 100 1018.0
20260505211410 73 212 4.0 10.0 0.00 0.00 0.00 100 1018.0
20260505211306 73 214 4.0 10.0 0.00 0.00 0.00 100 1018.1
20260505211207 73 213 4.0 10.0 0.00 0.00 0.00 100 1018.0
20260505211107 73 235 4.0 10.0 0.00 0.00 0.00 100 1018.1
20260505211006 73 219 4.0 10.0 0.00 0.00 0.00 100 1018.1
20260505210808 73 167 4.0 10.0 0.00 0.00 0.00 100 1018.0
20260505210707 73 166 4.0 10.0 0.00 0.00 0.00 100 1018.0
20260505210606 73 113 4.0 10.0 0.00 0.00 0.00 100 1017.9
20260505210508 73 194 4.0 9.0 0.00 0.00 0.00 100 1018.0
20260505210410 73 194 4.0 9.0 0.00 0.00 0.00 100 1018.0
20260505210307 73 215 4.0 9.0 0.00 0.00 0.00 100 1018.0
20260505210208 73 222 5.0 9.0 0.00 0.00 0.00 100 1018.0
20260505210108 72 217 5.0 9.0 0.00 0.00 0.00 100 1017.9
20260505210008 72 217 5.0 9.0 0.00 0.00 0.00 100 1018.0
20260505205808 72 223 4.0 12.0 0.00 0.00 0.00 100 1018.0
20260505205707 73 229 4.0 12.0 0.00 0.00 0.00 100 1017.8
20260505205606 73 220 4.0 12.0 0.00 0.00 0.00 100 1017.9
20260505205507 72 221 4.0 12.0 0.00 0.00 0.00 100 1017.8
20260505205307 73 219 4.0 12.0 0.00 0.00 0.00 100 1017.9
20260505205207 73 214 4.0 12.0 0.00 0.00 0.00 100 1017.9
20260505205108 73 211 4.0 12.0 0.00 0.00 0.00 100 1017.9
20260505205007 73 216 4.0 12.0 0.00 0.00 0.00 100 1018.0
20260505204806 73 198 4.0 12.0 0.00 0.00 0.00 100 1017.9
20260505204707 73 134 4.0 12.0 0.00 0.00 0.00 100 1018.0
20260505204608 73 213 4.0 12.0 0.00 0.00 0.00 100 1018.1
20260505204506 73 220 4.0 12.0 0.00 0.00 0.00 100 1018.1
20260505204307 73 185 4.0 12.0 0.00 0.00 0.00 100 1018.1
20260505204207 73 168 4.0 12.0 0.00 0.00 0.00 100 1018.2
20260505204106 73 216 4.0 12.0 0.00 0.00 0.00 100 1018.2
20260505204026 73 118 4.0 12.0 0.00 0.00 0.00 100 1018.1
20260505204010 73 207 4.0 11.0 0.00 0.00 0.00 100 1018.1
20260505203807 74 211 4.0 11.0 0.00 0.00 0.00 100 1018.1
20260505203707 74 209 3.0 9.0 0.00 0.00 0.00 100 1018.1
20260505203606 73 175 3.0 9.0 0.00 0.00 0.00 100 1018.1
20260505203525 73 185 3.0 9.0 0.00 0.00 0.00 100 1018.2
20260505203509 73 49 3.0 9.0 0.00 0.00 0.00 100 1018.2
20260505203308 73 228 3.0 8.0 0.00 0.00 0.00 100 1018.3
20260505203208 73 211 3.0 8.0 0.00 0.00 0.00 100 1018.4
20260505203108 73 227 3.0 8.0 0.00 0.00 0.00 100 1018.3
20260505203008 73 244 3.0 8.0 0.00 0.00 0.00 100 1018.3
20260505202806 73 193 3.0 11.0 0.00 0.00 0.00 100 1018.4
20260505202703 73 217 4.0 11.0 0.00 0.00 0.00 100 1018.4
20260505202604 73 217 4.0 11.0 0.00 0.00 0.00 100 1018.3
20260505202523 73 220 4.0 11.0 0.00 0.00 0.00 100 1018.4
20260505202402 73 221 4.0 11.0 0.00 0.00 0.00 100 1018.4
20260505202302 73 213 4.0 11.0 0.00 0.00 0.00 100 1018.4
20260505202158 74 218 4.0 11.0 0.00 0.00 0.00 100 1018.3
20260505202058 74 214 4.0 11.0 0.00 0.00 0.00 100 1018.3
20260505201959 74 213 4.0 11.0 0.00 0.00 0.00 100 1018.3
20260505201859 74 215 4.0 11.0 0.00 0.00 0.00 100 1018.3
20260505201759 74 225 4.0 15.0 0.00 0.00 0.00 100 1018.3
20260505201659 74 161 4.0 15.0 0.00 0.00 0.00 100 1018.3
20260505201559 73 194 4.0 15.0 0.00 0.00 0.00 100 1018.3
20260505201500 73 212 4.0 15.0 0.00 0.00 0.00 100 1018.3
20260505201359 73 210 4.0 15.0 0.00 0.00 0.00 100 1018.4
20260505201256 73 210 4.0 15.0 0.00 0.00 0.00 100 1018.4
20260505201155 73 205 4.0 15.0 0.00 0.00 0.00 100 1018.3
20260505201055 73 185 4.0 15.0 0.00 0.00 0.00 100 1018.3
20260505200953 73 202 4.0 15.0 0.00 0.00 0.00 100 1018.4
20260505200853 73 108 4.0 15.0 0.00 0.00 0.00 100 1018.4
20260505200753 73 224 4.0 11.0 0.00 0.00 0.00 100 1018.4
20260505200651 73 225 4.0 11.0 0.00 0.00 0.00 100 1018.4
20260505200550 73 130 4.0 11.0 0.00 0.00 0.00 100 1018.6
20260505200451 73 178 4.0 11.0 0.00 0.00 0.00 100 1018.6
20260505200353 74 222 4.0 11.0 0.00 0.00 0.00 100 1018.4
20260505200246 74 222 4.0 11.0 0.00 0.00 0.00 100 1018.4
20260505200145 74 163 4.0 11.0 0.00 0.00 0.00 100 1018.4
20260505200043 74 155 4.0 11.0 0.00 0.00 0.00 100 1018.6
20260505200015 74 195 4.0 11.0 0.00 0.00 0.00 100 1018.4
20260505195844 74 148 4.0 9.0 0.00 0.00 0.00 100 1018.6
20260505195743 74 179 4.0 9.0 0.00 0.00 0.00 100 1018.6
20260505195643 74 196 4.0 9.0 0.00 0.00 0.00 100 1018.6
20260505195542 74 210 4.0 9.0 0.00 0.00 0.00 100 1018.7
20260505195442 74 199 4.0 9.0 0.00 0.00 0.00 100 1018.7
20260505195343 74 212 3.0 9.0 0.00 0.00 0.00 100 1018.6
20260505195243 74 203 3.0 9.0 0.00 0.00 0.00 100 1018.6
20260505195144 74 205 3.0 9.0 0.00 0.00 0.00 100 1018.6
20260505195042 74 170 3.0 9.0 0.00 0.00 0.00 100 1018.6
20260505194941 74 221 3.0 9.0 0.00 0.00 0.00 100 1018.6
20260505194841 73 218 3.0 10.0 0.00 0.00 0.00 100 1018.4
20260505194740 73 144 4.0 10.0 0.00 0.00 0.00 100 1018.8
20260505194640 73 215 4.0 10.0 0.00 0.00 0.00 100 1018.7
20260505194536 73 195 4.0 10.0 0.00 0.00 0.00 100 1018.8
20260505194434 73 215 3.0 10.0 0.00 0.00 0.00 100 1018.7
20260505194334 73 223 4.0 10.0 0.00 0.00 0.00 100 1018.7
20260505194232 73 137 4.0 10.0 0.00 0.00 0.00 100 1018.7
20260505194132 73 207 4.0 10.0 0.00 0.00 0.00 100 1018.7
20260505194028 73 189 4.0 10.0 0.00 0.00 0.00 100 1018.7
20260505193930 73 212 4.0 10.0 0.00 0.00 0.00 100 1018.8
20260505193828 74 224 3.0 9.0 0.00 0.00 0.00 100 1018.8
20260505193726 74 227 3.0 9.0 0.00 0.00 0.00 100 1018.7
20260505193626 74 220 3.0 8.0 0.00 0.00 0.00 100 1018.8
20260505193526 74 140 3.0 8.0 0.00 0.00 0.00 100 1018.8
20260505193510 74 223 3.0 9.0 0.00 0.00 0.00 100 1018.9
20260505193322 74 163 3.0 9.0 0.00 0.00 0.00 100 1018.9
20260505193223 74 217 4.0 9.0 0.00 0.00 0.00 100 1018.8
20260505193122 74 208 4.0 10.0 0.00 0.00 0.00 100 1018.8
20260505193024 74 150 4.0 10.0 0.00 0.00 0.00 100 1018.8
20260505193010 75 89 4.0 11.0 0.00 0.00 0.00 100 1018.9
20260505192819 74 88 4.0 11.0 0.00 0.00 0.00 100 1018.9
20260505192718 74 211 4.0 11.0 0.00 0.00 0.00 100 1018.9
20260505192618 75 211 4.0 11.0 0.00 0.00 0.00 100 1018.8
20260505192522 75 109 4.0 11.0 0.00 0.00 0.00 100 1018.9
20260505192506 74 206 4.0 11.0 0.00 0.00 0.00 100 1018.9
20260505192315 75 178 4.0 11.0 0.00 0.00 0.00 100 1018.9
20260505192215 75 162 4.0 11.0 0.00 0.00 0.00 100 1018.9
20260505192113 74 178 4.0 11.0 0.00 0.00 0.00 100 1018.9
20260505192013 75 215 4.0 11.0 0.00 0.00 0.00 100 1018.9
20260505191912 74 125 3.0 10.0 0.00 0.00 0.00 100 1018.9
20260505191812 74 219 3.0 10.0 0.00 0.00 0.00 100 1019.0
20260505191711 74 220 3.0 10.0 0.00 0.00 0.00 100 1018.9
20260505191609 74 220 4.0 10.0 0.00 0.00 0.00 100 1018.9
20260505191506 74 219 4.0 10.0 0.00 0.00 0.00 100 1018.9
20260505191408 74 225 4.0 10.0 0.00 0.00 0.00 100 1018.9
20260505191304 74 241 4.0 14.0 0.00 0.00 0.00 100 1019.0
20260505191205 74 169 5.0 14.0 0.00 0.00 0.00 100 1019.0
20260505191104 74 175 5.0 14.0 0.00 0.00 0.00 100 1018.9
20260505191003 74 195 5.0 14.0 0.00 0.00 0.00 100 1019.0
20260505190904 74 169 5.0 14.0 0.00 0.00 0.00 100 1019.0
20260505190804 74 220 6.0 14.0 0.00 0.00 0.00 100 1019.0
20260505190704 74 223 6.0 14.0 0.00 0.00 0.00 100 1019.2
20260505190603 73 223 6.0 14.0 0.00 0.00 0.00 100 1019.1
20260505190503 73 223 6.0 14.0 0.00 0.00 0.00 100 1019.1
20260505190404 73 230 6.0 14.0 0.00 0.00 0.00 100 1019.1
20260505190303 74 231 6.0 14.0 0.00 0.00 0.00 100 1019.1
20260505190203 74 219 6.0 12.0 0.00 0.00 0.00 100 1019.2
20260505190104 74 233 5.0 12.0 0.00 0.00 0.00 100 1019.2
20260505190003 74 227 5.0 16.0 0.00 0.00 0.00 100 1019.3
20260505185904 74 225 5.0 16.0 0.00 0.00 0.00 100 1019.3
20260505185802 74 190 6.0 16.0 0.00 0.00 0.00 100 1019.3
20260505185703 74 227 5.0 16.0 0.00 0.00 0.00 100 1019.3
20260505185602 74 223 5.0 16.0 0.00 0.00 0.00 100 1019.2
20260505185502 74 200 5.0 16.0 0.00 0.00 0.00 100 1019.3
20260505185404 74 225 5.0 16.0 0.00 0.00 0.00 100 1019.3
20260505185304 74 225 5.0 16.0 0.00 0.00 0.00 100 1019.2
20260505185202 74 221 5.0 16.0 0.00 0.00 0.00 100 1019.2
20260505185101 74 213 5.0 16.0 0.00 0.00 0.00 100 1019.2
20260505185002 74 211 5.0 14.0 0.00 0.00 0.00 100 1019.3
20260505184802 74 202 5.0 9.0 0.00 0.00 0.00 100 1019.2
20260505184702 74 202 5.0 9.0 0.00 0.00 0.00 100 1019.2
20260505184559 74 195 5.0 9.0 0.00 0.00 0.00 100 1019.3
20260505184458 74 217 5.0 9.0 0.00 0.00 0.00 100 1019.3
20260505184258 74 213 5.0 9.0 0.00 0.00 0.00 100 1019.3
20260505184157 74 215 5.0 10.0 0.00 0.00 0.00 100 1019.3
20260505184056 74 215 5.0 10.0 0.00 0.00 0.00 100 1019.2
20260505183957 75 225 5.0 10.0 0.00 0.00 0.00 100 1019.2
20260505183855 75 138 5.0 10.0 0.00 0.00 0.00 100 1019.3
20260505183753 75 225 5.0 10.0 0.00 0.00 0.00 100 1019.3
20260505183654 75 210 5.0 10.0 0.00 0.00 0.00 100 1019.3
20260505183550 74 218 5.0 11.0 0.00 0.00 0.00 100 1019.3
20260505183450 74 226 5.0 11.0 0.00 0.00 0.00 100 1019.2
20260505183346 74 223 5.0 11.0 0.00 0.00 0.00 100 1019.4
20260505183245 74 234 5.0 15.0 0.00 0.00 0.00 100 1019.3
20260505183142 74 225 5.0 15.0 0.00 0.00 0.00 100 1019.3
20260505183042 74 211 6.0 15.0 0.00 0.00 0.00 100 1019.2
20260505182942 74 223 6.0 15.0 0.00 0.00 0.00 100 1019.3
20260505182843 74 219 6.0 15.0 0.00 0.00 0.00 100 1019.3
20260505182642 74 217 5.0 15.0 0.00 0.00 0.00 100 1019.4
20260505182544 74 217 5.0 15.0 0.00 0.00 0.00 100 1019.3
20260505182508 74 201 5.0 15.0 0.00 0.00 0.00 100 1019.3
20260505182344 74 208 5.0 15.0 0.00 0.00 0.00 100 1019.3
20260505182242 74 224 5.0 10.0 0.00 0.00 0.00 100 1019.4
20260505182143 75 227 4.0 10.0 0.00 0.00 0.00 100 1019.4
20260505182043 75 221 4.0 10.0 0.00 0.00 0.00 100 1019.3
20260505181942 75 146 4.0 10.0 0.00 0.00 0.00 100 1019.3
20260505181838 75 207 4.0 10.0 0.00 0.00 0.00 100 1019.3
20260505181740 75 110 4.0 10.0 0.00 0.00 0.00 100 1019.3
20260505181639 75 209 4.0 9.0 0.00 0.00 0.00 100 1019.3
20260505181539 75 208 4.0 9.0 0.00 0.00 0.00 100 1019.3
20260505181507 75 222 4.0 13.0 0.00 0.00 0.00 100 1019.3
20260505181338 75 211 4.0 13.0 0.00 0.00 0.00 100 1019.3
20260505181235 75 207 4.0 13.0 0.00 0.00 0.00 100 1019.4
20260505181134 75 180 4.0 13.0 0.00 0.00 0.00 100 1019.3
20260505181035 75 202 4.0 13.0 0.00 0.00 0.00 100 1019.3
20260505180933 75 227 4.0 13.0 0.00 0.00 0.00 100 1019.3
20260505180833 75 228 4.0 13.0 0.00 0.00 0.00 100 1019.3
20260505180731 74 212 4.0 13.0 0.00 0.00 0.00 100 1019.3
20260505180632 74 211 4.0 13.0 0.00 0.00 0.00 100 1019.2
20260505180532 75 218 4.0 13.0 0.00 0.00 0.00 100 1019.2
20260505180504 75 219 4.0 9.0 0.00 0.00 0.00 100 1019.2
20260505180332 74 211 4.0 9.0 0.00 0.00 0.00 100 1019.3
20260505180230 74 219 4.0 9.0 0.00 0.00 0.00 100 1019.3
20260505180129 74 220 4.0 9.0 0.00 0.00 0.00 100 1019.3
20260505180028 74 221 4.0 9.0 0.00 0.00 0.00 100 1019.3
20260505175930 74 221 4.0 9.0 0.00 0.00 0.00 100 1019.3
20260505175829 75 219 4.0 9.0 0.00 0.00 0.00 100 1019.3
20260505175729 74 86 4.0 9.0 0.00 0.00 0.00 100 1019.4
20260505175628 74 201 4.0 9.0 0.00 0.00 0.00 100 1019.4
20260505175529 74 74 4.0 9.0 0.00 0.00 0.00 100 1019.4
20260505175504 75 225 4.0 10.0 0.00 0.00 0.00 100 1019.5
20260505175329 74 175 4.0 12.0 0.00 0.00 0.00 100 1019.5
20260505175226 74 153 5.0 12.0 0.00 0.00 0.00 100 1019.6
20260505175128 74 209 5.0 12.0 0.00 0.00 0.00 100 1019.5
20260505175025 74 210 5.0 12.0 0.00 0.00 0.00 100 1019.5
20260505174926 74 207 5.0 12.0 0.00 0.00 0.00 100 1019.5
20260505174823 74 179 5.0 12.0 0.00 0.00 0.00 100 1019.5
20260505174721 74 211 5.0 12.0 0.00 0.00 0.00 100 1019.4
20260505174618 74 208 5.0 12.0 0.00 0.00 0.00 100 1019.5
20260505174518 74 192 5.0 12.0 0.00 0.00 0.00 100 1019.6
20260505174419 74 210 5.0 12.0 0.00 0.00 0.00 100 1019.4
20260505174319 74 220 5.0 12.0 0.00 0.00 0.00 100 1019.5
20260505174216 74 221 5.0 12.0 0.00 0.00 0.00 100 1019.5
20260505174118 74 207 5.0 12.0 0.00 0.00 0.00 100 1019.4
20260505174016 74 192 5.0 12.0 0.00 0.00 0.00 100 1019.4
20260505173914 74 223 5.0 12.0 0.00 0.00 0.00 100 1019.5
20260505173815 74 231 5.0 12.0 0.00 0.00 0.00 100 1019.5
20260505173712 74 219 5.0 11.0 0.00 0.00 0.00 100 1019.5
20260505173611 74 217 5.0 11.0 0.00 0.00 0.00 100 1019.5
20260505173511 74 223 5.0 11.0 0.00 0.00 0.00 100 1019.5
20260505173410 74 228 5.0 11.0 0.00 0.00 0.00 100 1019.5
20260505173311 74 219 5.0 11.0 0.00 0.00 0.00 100 1019.4
20260505173209 74 216 5.0 12.0 0.00 0.00 0.00 100 1019.5
20260505173107 74 221 5.0 12.0 0.00 0.00 0.00 100 1019.5
20260505173008 73 221 5.0 12.0 0.00 0.00 0.00 100 1019.4
20260505172907 73 221 6.0 12.0 0.00 0.00 0.00 100 1019.4
20260505172806 73 223 6.0 12.0 0.00 0.00 0.00 100 1019.5
20260505172706 73 207 6.0 12.0 0.00 0.00 0.00 100 1019.5
20260505172607 74 214 5.0 12.0 0.00 0.00 0.00 100 1019.5
20260505172506 74 225 5.0 12.0 0.00 0.00 0.00 100 1019.5
20260505172406 74 226 5.0 12.0 0.00 0.00 0.00 100 1019.5
20260505172306 74 229 4.0 12.0 0.00 0.00 0.00 100 1019.4
20260505172205 74 213 4.0 11.0 0.00 0.00 0.00 100 1019.6
20260505172106 74 218 4.0 11.0 0.00 0.00 0.00 100 1019.5
20260505172013 74 219 4.0 11.0 0.00 0.00 0.00 100 1019.5
20260505171957 75 222 3.0 11.0 0.00 0.00 0.00 100 1019.5
20260505171806 75 219 3.0 11.0 0.00 0.00 0.00 100 1019.5
20260505171706 75 219 3.0 11.0 0.00 0.00 0.00 100 1019.5
20260505171604 75 219 4.0 11.0 0.00 0.00 0.00 100 1019.4
20260505171502 75 202 4.0 11.0 0.00 0.00 0.00 100 1019.6
20260505171402 74 182 4.0 11.0 0.00 0.00 0.00 100 1019.5
20260505171302 74 112 4.0 11.0 0.00 0.00 0.00 100 1019.5
20260505171204 74 219 5.0 11.0 0.00 0.00 0.00 100 1019.5
20260505171103 74 217 5.0 11.0 0.00 0.00 0.00 100 1019.6
20260505171012 74 219 5.0 11.0 0.00 0.00 0.00 100 1019.5
20260505170957 74 218 5.0 11.0 0.00 0.00 0.00 100 1019.5
20260505170803 74 187 5.0 11.0 0.00 0.00 0.00 100 1019.5
20260505170703 74 233 5.0 11.0 0.00 0.00 0.00 100 1019.5
20260505170603 74 210 5.0 11.0 0.00 0.00 0.00 100 1019.6
20260505170502 74 221 4.0 11.0 0.00 0.00 0.00 100 1019.5
20260505170433 74 159 4.0 11.0 0.00 0.00 0.00 100 1019.6
20260505170300 74 223 4.0 11.0 0.00 0.00 0.00 100 1019.5
20260505170200 74 225 4.0 12.0 0.00 0.00 0.00 100 1019.5
20260505170108 74 209 4.0 12.0 0.00 0.00 0.00 100 1019.5
20260505170000 74 207 4.0 12.0 0.00 0.00 0.00 100 1019.6
20260505165800 74 200 4.0 12.0 0.00 0.00 0.00 100 1019.6
20260505165701 74 216 3.0 12.0 0.00 0.00 0.00 100 1019.6
20260505165601 74 161 3.0 12.0 0.00 0.00 0.00 100 1019.5
20260505165500 74 219 3.0 12.0 0.00 0.00 0.00 100 1019.6
20260505165401 74 194 3.0 12.0 0.00 0.00 0.00 100 1019.5
20260505165300 74 192 3.0 12.0 0.00 0.00 0.00 100 1019.5
20260505165201 74 116 4.0 9.0 0.00 0.00 0.00 100 1019.7
20260505165059 74 215 4.0 9.0 0.00 0.00 0.00 100 1019.5
20260505164959 74 217 4.0 9.0 0.00 0.00 0.00 100 1019.7
20260505164759 73 178 4.0 10.0 0.00 0.00 0.00 100 1019.7
20260505164659 73 175 5.0 10.0 0.00 0.00 0.00 100 1019.7
20260505164559 73 191 5.0 10.0 0.00 0.00 0.00 100 1019.7
20260505164458 73 191 5.0 10.0 0.00 0.00 0.00 100 1019.7
20260505164359 73 222 5.0 10.0 0.00 0.00 0.00 100 1019.7
20260505164258 73 240 5.0 10.0 0.00 0.00 0.00 100 1019.7
20260505164200 73 220 6.0 13.0 0.00 0.00 0.00 100 1019.6
20260505164058 73 179 6.0 13.0 0.00 0.00 0.00 100 1019.6
20260505163959 73 226 6.0 13.0 0.00 0.00 0.00 100 1019.7
20260505163855 73 212 6.0 13.0 0.00 0.00 0.00 100 1019.7
20260505163758 73 210 6.0 13.0 0.00 0.00 0.00 100 1019.7
20260505163657 73 220 6.0 13.0 0.00 0.00 0.00 100 1019.7
20260505163556 73 227 6.0 13.0 0.00 0.00 0.00 100 1019.7
20260505163457 73 0 6.0 13.0 0.00 0.00 0.00 100 1019.8
20260505163357 73 226 6.0 13.0 0.00 0.00 0.00 100 1019.7
20260505163257 73 221 6.0 13.0 0.00 0.00 0.00 100 1019.7
20260505163157 73 217 6.0 12.0 0.00 0.00 0.00 100 1019.7
20260505163056 73 232 5.0 12.0 0.00 0.00 0.00 100 1019.7
20260505162958 73 221 5.0 11.0 0.00 0.00 0.00 100 1019.7
20260505162857 73 219 6.0 11.0 0.00 0.00 0.00 100 1019.6
20260505162757 73 222 5.0 11.0 0.00 0.00 0.00 100 1019.6
20260505162654 72 146 6.0 11.0 0.00 0.00 0.00 100 1019.7
20260505162555 72 227 6.0 11.0 0.00 0.00 0.00 100 1019.8
20260505162510 72 225 6.0 11.0 0.00 0.00 0.00 100 1019.7
20260505162453 72 224 6.0 11.0 0.00 0.00 0.00 100 1019.7
20260505162251 73 225 6.0 11.0 0.00 0.00 0.00 100 1019.7
20260505162152 73 221 6.0 11.0 0.00 0.00 0.00 100 1019.8
20260505162052 73 227 5.0 11.0 0.00 0.00 0.00 100 1019.8
20260505162008 73 224 6.0 11.0 0.00 0.00 0.00 100 1019.8
20260505161953 73 215 5.0 11.0 0.00 0.00 0.00 100 1019.9
20260505161752 73 203 5.0 11.0 0.00 0.00 0.00 100 1019.9
20260505161651 73 232 5.0 11.0 0.00 0.00 0.00 100 1020.0
20260505161553 73 223 5.0 11.0 0.00 0.00 0.00 100 1020.0
20260505161453 73 221 4.0 11.0 0.00 0.00 0.00 100 1019.9
20260505161354 73 225 4.0 9.0 0.00 0.00 0.00 100 1020.0
20260505161252 73 130 4.0 9.0 0.00 0.00 0.00 100 1020.0
20260505161153 73 225 4.0 9.0 0.00 0.00 0.00 100 1020.0
20260505161050 73 215 4.0 8.0 0.00 0.00 0.00 100 1020.0
20260505160950 73 212 4.0 11.0 0.00 0.00 0.00 100 1020.0
20260505160850 73 229 5.0 11.0 0.00 0.00 0.00 100 1020.0
20260505160751 73 223 5.0 11.0 0.00 0.00 0.00 100 1020.0
20260505160650 73 215 5.0 11.0 0.00 0.00 0.00 100 1020.1
20260505160550 73 206 5.0 11.0 0.00 0.00 0.00 100 1020.1
20260505160450 73 183 6.0 11.0 0.00 0.00 0.00 100 1020.0
20260505160249 73 216 7.0 12.0 0.00 0.00 0.00 100 1020.1
20260505153336 73 226 3.0 9.0 0.00 0.00 0.00 100 1019.9
20260505153237 73 225 3.0 9.0 0.00 0.00 0.00 100 1019.9
20260505153136 73 223 3.0 9.0 0.00 0.00 0.00 100 1019.9
20260505153037 73 225 3.0 9.0 0.00 0.00 0.00 100 1019.9
20260505152935 73 214 4.0 10.0 0.00 0.00 0.00 100 1019.9
20260505152833 73 215 4.0 11.0 0.00 0.00 0.00 100 1019.8
20260505152732 73 214 4.0 11.0 0.00 0.00 0.00 100 1019.9
20260505152631 73 101 4.0 11.0 0.00 0.00 0.00 100 1019.9
20260505152530 73 196 4.0 11.0 0.00 0.00 0.00 100 1019.9
20260505152444 72 222 5.0 11.0 0.00 0.00 0.00 100 1019.9
20260505152438 72 222 5.0 11.0 0.00 0.00 0.00 100 1019.9
20260505152433 73 212 5.0 11.0 0.00 0.00 0.00 100 1019.9
20260505152427 72 222 5.0 11.0 0.00 0.00 0.00 100 1019.9
20260505152029 72 223 5.0 11.0 0.00 0.00 0.00 100 1019.9
20260505151954 72 226 5.0 11.0 0.00 0.00 0.00 100 1019.9
20260505151831 72 222 6.0 12.0 0.00 0.00 0.00 100 1019.9
20260505151728 72 224 6.0 12.0 0.00 0.00 0.00 100 1020.0
20260505151626 72 224 6.0 12.0 0.00 0.00 0.00 100 1019.9
20260505151526 72 224 6.0 14.0 0.00 0.00 0.00 100 1019.9
20260505151425 72 224 6.0 14.0 0.00 0.00 0.00 100 1019.9
20260505151324 72 225 6.0 14.0 0.00 0.00 0.00 100 1020.0
20260505151224 72 231 6.0 14.0 0.00 0.00 0.00 100 1019.9
20260505151125 72 213 5.0 14.0 0.00 0.00 0.00 100 1020.0
20260505151024 72 232 5.0 14.0 0.00 0.00 0.00 100 1020.1
20260505150953 72 232 5.0 14.0 0.00 0.00 0.00 100 1019.9
20260505150824 72 227 4.0 14.0 0.00 0.00 0.00 100 1020.0
20260505150724 73 221 4.0 14.0 0.00 0.00 0.00 100 1020.0
20260505150624 73 228 3.0 14.0 0.00 0.00 0.00 100 1020.0
20260505150525 73 229 3.0 13.0 0.00 0.00 0.00 100 1020.0
20260505150423 73 228 3.0 7.0 0.00 0.00 0.00 100 1020.0
20260505150325 73 217 3.0 7.0 0.00 0.00 0.00 100 1019.9
20260505150222 73 217 3.0 7.0 0.00 0.00 0.00 100 1019.9
20260505150122 73 223 3.0 7.0 0.00 0.00 0.00 100 1019.9
20260505140654 72 232 3.0 7.0 0.00 0.00 0.00 100 1019.7
20260505140554 71 232 3.0 7.0 0.00 0.00 0.00 100 1019.7
20260505140454 71 232 3.0 8.0 0.00 0.00 0.00 100 1019.7
20260505140354 71 232 3.0 8.0 0.00 0.00 0.00 100 1019.7
20260505140252 71 224 3.0 8.0 0.00 0.00 0.00 100 1019.8
20260505140152 71 224 4.0 8.0 0.00 0.00 0.00 100 1019.7
20260505130242 69 226 3.0 7.0 0.00 0.00 0.00 100 1019.6
20260505130141 69 225 2.0 7.0 0.00 0.00 0.00 100 1019.5
20260505125041 68 224 2.0 5.0 0.00 0.00 0.00 100 1019.6
20260505124937 68 224 3.0 5.0 0.00 0.00 0.00 100 1019.6
20260505124735 68 224 3.0 5.0 0.00 0.00 0.00 100 1019.6
20260505124634 68 224 3.0 5.0 0.00 0.00 0.00 100 1019.6
20260505124532 68 224 2.0 5.0 0.00 0.00 0.00 100 1019.7
20260505124431 68 224 2.0 5.0 0.00 0.00 0.00 100 1019.6
20260505124226 67 224 2.0 4.0 0.00 0.00 0.00 100 1019.6
20260505124125 67 224 2.0 4.0 0.00 0.00 0.00 100 1019.6
20260505124025 67 224 2.0 4.0 0.00 0.00 0.00 100 1019.6
20260505123925 67 224 2.0 4.0 0.00 0.00 0.00 100 1019.6
20260505123723 67 224 2.0 4.0 0.00 0.00 0.00 100 1019.6
20260505123624 67 224 2.0 4.0 0.00 0.00 0.00 100 1019.6
20260505123524 67 224 2.0 4.0 0.00 0.00 0.00 100 1019.5
20260505123444 66 224 2.0 4.0 0.00 0.00 0.00 100 1019.6
20260505123428 66 224 2.0 4.0 0.00 0.00 0.00 100 1019.5
20260505123224 66 224 2.0 4.0 0.00 0.00 0.00 100 1019.4
20260505123123 66 224 2.0 4.0 0.00 0.00 0.00 100 1019.5
20260505123021 66 224 2.0 4.0 0.00 0.00 0.00 100 1019.5
20260505122918 66 224 1.0 4.0 0.00 0.00 0.00 100 1019.5
20260505122816 65 224 1.0 4.0 0.00 0.00 0.00 100 1019.5
20260505122716 65 224 1.0 4.0 0.00 0.00 0.00 100 1019.6
20260505122615 65 224 1.0 3.0 0.00 0.00 0.00 100 1019.6
20260505122517 65 224 1.0 3.0 0.00 0.00 0.00 100 1019.6
20260505122436 64 224 1.0 3.0 0.00 0.00 0.00 100 1019.5
20260505122317 64 224 0.0 3.0 0.00 0.00 0.00 100 1019.6
20260505122216 64 224 0.0 3.0 0.00 0.00 0.00 100 1019.6
20260505122116 64 224 0.0 0.0 0.00 0.00 0.00 100 1019.6
20260505122016 64 224 0.0 0.0 0.00 0.00 0.00 100 1019.5
20260505121916 64 224 0.0 0.0 0.00 0.00 0.00 100 1019.5
20260505121817 64 224 0.0 0.0 0.00 0.00 0.00 100 1019.5
20260505121717 64 224 0.0 0.0 0.00 0.00 0.00 100 1019.5
20260505121616 64 224 0.0 0.0 0.00 0.00 0.00 100 1019.6
20260505121513 63 224 0.0 0.0 0.00 0.00 0.00 100 1019.5
20260505121413 63 224 0.0 0.0 0.00 0.00 0.00 100 1019.5
20260505121313 63 224 0.0 0.0 0.00 0.00 0.00 100 1019.5
20260505121210 63 224 0.0 0.0 0.00 0.00 0.00 100 1019.6
20260505121108 62 224 0.0 0.0 0.00 0.00 0.00 100 1019.7
20260505121006 62 224 0.0 0.0 0.00 0.00 0.00 100 1019.6
20260505120906 62 224 0.0 0.0 0.00 0.00 0.00 100 1019.6
20260505120808 62 224 0.0 0.0 0.00 0.00 0.00 100 1019.6
20260505120705 62 224 0.0 0.0 0.00 0.00 0.00 100 1019.6
20260505120602 62 224 0.0 0.0 0.00 0.00 0.00 100 1019.6
20260505120503 61 224 0.0 0.0 0.00 0.00 0.00 100 1019.5
20260505120401 61 224 0.0 0.0 0.00 0.00 0.00 100 1019.5
20260505120300 61 224 0.0 0.0 0.00 0.00 0.00 100 1019.5
20260505120159 60 224 0.0 0.0 0.00 0.00 0.00 100 1019.5
20260505120100 60 224 0.0 0.0 0.00 0.00 0.00 100 1019.4
20260505120001 60 224 0.0 0.0 0.00 0.00 0.00 100 1019.4
20260505115927 60 224 0.0 0.0 0.00 0.00 0.00 100 1019.4
20260505115802 60 224 0.0 0.0 0.00 0.00 0.00 100 1019.4
20260505115701 59 224 0.0 0.0 0.00 0.00 0.00 100 1019.5
20260505115559 59 224 0.0 0.0 0.00 0.00 0.00 100 1019.4
20260505115458 59 224 0.0 0.0 0.00 0.00 0.00 100 1019.5
20260505115359 59 224 0.0 0.0 0.00 0.00 0.00 100 1019.5
20260505115255 58 224 0.0 0.0 0.00 0.00 0.00 100 1019.4
20260505115157 58 224 0.0 0.0 0.00 0.00 0.00 100 1019.5
20260505115054 58 224 0.0 0.0 0.00 0.00 0.00 100 1019.4
20260505114954 58 224 0.0 0.0 0.00 0.00 0.00 100 1019.4
20260505114927 58 224 0.0 0.0 0.00 0.00 0.00 100 1019.4
20260505114752 58 224 0.0 0.0 0.00 0.00 0.00 100 1019.4
20260505114651 57 224 0.0 0.0 0.00 0.00 0.00 100 1019.4
20260505114553 57 224 0.0 0.0 0.00 0.00 0.00 100 1019.4
20260505114453 57 224 0.0 0.0 0.00 0.00 0.00 100 1019.4
20260505114352 57 224 0.0 0.0 0.00 0.00 0.00 100 1019.4
20260505114248 56 225 0.0 0.0 0.00 0.00 0.00 100 1019.3
20260505114149 56 224 0.0 0.0 0.00 0.00 0.00 100 1019.3
20260505114047 56 224 0.0 0.0 0.00 0.00 0.00 100 1019.3
20260505113946 56 224 0.0 0.0 0.00 0.00 0.00 100 1019.3
20260505113845 56 224 0.0 0.0 0.00 0.00 0.00 100 1019.3
20260505113744 56 224 0.0 0.0 0.00 0.00 0.00 100 1019.3
20260505113645 56 224 0.0 0.0 0.00 0.00 0.00 100 1019.2
20260505113544 55 224 0.0 0.0 0.00 0.00 0.00 100 1019.2
20260505113442 55 224 0.0 0.0 0.00 0.00 0.00 100 1019.3
20260505113341 55 224 0.0 0.0 0.00 0.00 0.00 100 1019.2
20260505113241 55 224 0.0 0.0 0.00 0.00 0.00 100 1019.1
20260505113139 55 224 0.0 0.0 0.00 0.00 0.00 100 1019.3
20260505113041 55 224 0.0 0.0 0.00 0.00 0.00 100 1019.3
20260505112937 55 224 0.0 0.0 0.00 0.00 0.00 100 1019.1
20260505112838 54 224 0.0 0.0 0.00 0.00 0.00 100 1019.2
20260505112736 54 224 0.0 0.0 0.00 0.00 0.00 100 1019.2
20260505112635 54 224 0.0 0.0 0.00 0.00 0.00 100 1019.1
20260505112536 54 224 0.0 0.0 0.00 0.00 0.00 100 1019.1
20260505112437 54 224 0.0 0.0 0.00 0.00 0.00 100 1019.2
20260505112423 54 224 0.0 0.0 0.00 0.00 0.00 100 1019.1
20260505112232 54 224 0.0 0.0 0.00 0.00 0.00 100 1019.0
20260505112132 54 224 0.0 0.0 0.00 0.00 0.00 100 1019.1
20260505112032 54 224 0.0 0.0 0.00 0.00 0.00 100 1019.1
20260505111935 53 224 0.0 0.0 0.00 0.00 0.00 100 1019.0
20260505111920 53 224 0.0 0.0 0.00 0.00 0.00 100 1019.1
20260505111729 53 224 0.0 0.0 0.00 0.00 0.00 100 1018.9
20260505111628 53 224 0.0 0.0 0.00 0.00 0.00 100 1019.0
20260505111526 53 224 0.0 0.0 0.00 0.00 0.00 100 1019.1
20260505111423 53 224 0.0 0.0 0.00 0.00 0.00 100 1019.1
20260505111222 53 224 0.0 0.0 0.00 0.00 0.00 100 1019.0
20260505111121 53 224 0.0 0.0 0.00 0.00 0.00 100 1019.0
20260505111023 53 224 0.0 0.0 0.00 0.00 0.00 100 1019.0
20260505110920 53 224 0.0 0.0 0.00 0.00 0.00 100 1019.0
20260505110717 53 224 0.0 0.0 0.00 0.00 0.00 100 1018.9
20260505110617 53 224 0.0 0.0 0.00 0.00 0.00 100 1018.9
20260505110517 53 224 0.0 0.0 0.00 0.00 0.00 100 1019.0
20260505110416 53 224 0.0 0.0 0.00 0.00 0.00 100 1019.0
20260505110215 53 224 0.0 0.0 0.00 0.00 0.00 100 1019.0
20260505110113 52 224 0.0 0.0 0.00 0.00 0.00 100 1018.9
20260505102143 52 224 0.0 0.0 0.00 0.00 0.00 100 1018.4
20260505102041 52 224 0.0 0.0 0.00 0.00 0.00 100 1018.4
20260505101944 52 224 0.0 0.0 0.00 0.00 0.00 100 1018.4
20260505101839 52 224 0.0 0.0 0.00 0.00 0.00 100 1018.4
20260505101740 52 224 0.0 0.0 0.00 0.00 0.00 100 1018.4
20260505101638 52 224 0.0 0.0 0.00 0.00 0.00 100 1018.4
20260505101537 52 224 0.0 0.0 0.00 0.00 0.00 100 1018.3
20260505101439 52 224 0.0 0.0 0.00 0.00 0.00 100 1018.4
20260505101336 52 224 0.0 0.0 0.00 0.00 0.00 100 1018.3
20260505101236 52 224 0.0 0.0 0.00 0.00 0.00 100 1018.4
20260505101134 52 224 0.0 0.0 0.00 0.00 0.00 100 1018.4
20260505101034 52 224 0.0 0.0 0.00 0.00 0.00 100 1018.3
20260505100934 52 224 0.0 0.0 0.00 0.00 0.00 100 1018.3
20260505100919 52 224 0.0 0.0 0.00 0.00 0.00 100 1018.4
20260505100729 52 224 0.0 0.0 0.00 0.00 0.00 100 1018.4
20260505100629 53 224 0.0 0.0 0.00 0.00 0.00 100 1018.4
20260505100529 53 224 0.0 0.0 0.00 0.00 0.00 100 1018.4
20260505100429 53 224 0.0 0.0 0.00 0.00 0.00 100 1018.4
20260505100329 53 224 0.0 0.0 0.00 0.00 0.00 100 1018.3
20260505100229 53 224 0.0 0.0 0.00 0.00 0.00 100 1018.3
20260505100127 53 224 0.0 0.0 0.00 0.00 0.00 100 1018.3
20260505100026 53 224 0.0 0.0 0.00 0.00 0.00 100 1018.3
20260505095926 53 224 0.0 0.0 0.00 0.00 0.00 100 1018.2
20260505095724 53 224 0.0 0.0 0.00 0.00 0.00 100 1018.2
20260505095622 53 224 0.0 0.0 0.00 0.00 0.00 100 1018.2
20260505095521 53 224 0.0 0.0 0.00 0.00 0.00 100 1018.2
20260505095422 53 224 0.0 0.0 0.00 0.00 0.00 100 1018.2
20260505095220 53 224 0.0 0.0 0.00 0.00 0.00 100 1018.2
20260505095117 53 224 0.0 0.0 0.00 0.00 0.00 100 1018.2
20260505095018 53 224 0.0 0.0 0.00 0.00 0.00 100 1018.1
20260505094917 53 224 0.0 0.0 0.00 0.00 0.00 100 1018.2
20260505094716 53 224 0.0 0.0 0.00 0.00 0.00 100 1018.2
20260505094615 53 224 0.0 0.0 0.00 0.00 0.00 100 1018.1
20260505094514 53 224 0.0 0.0 0.00 0.00 0.00 100 1018.1
20260505094414 53 224 0.0 0.0 0.00 0.00 0.00 100 1018.1
20260505094211 53 224 0.0 0.0 0.00 0.00 0.00 100 1018.0
20260505094109 53 224 0.0 0.0 0.00 0.00 0.00 100 1018.1
20260505094009 53 224 0.0 0.0 0.00 0.00 0.00 100 1018.1
20260505093910 53 224 0.0 0.0 0.00 0.00 0.00 100 1018.0
20260505093706 53 224 0.0 0.0 0.00 0.00 0.00 100 1018.1
20260505093606 53 224 0.0 0.0 0.00 0.00 0.00 100 1018.1
20260505093505 53 224 0.0 0.0 0.00 0.00 0.00 100 1018.1
20260505093405 53 224 0.0 0.0 0.00 0.00 0.00 100 1018.0
20260505093305 53 224 0.0 0.0 0.00 0.00 0.00 100 1018.0
20260505093203 53 224 0.0 0.0 0.00 0.00 0.00 100 1018.0
20260505093102 53 224 0.0 0.0 0.00 0.00 0.00 100 1018.0
20260505093001 53 224 0.0 0.0 0.00 0.00 0.00 100 1018.0
20260505092921 53 224 0.0 0.0 0.00 0.00 0.00 100 1018.0
20260505092801 53 224 0.0 0.0 0.00 0.00 0.00 100 1018.0
20260505092701 53 224 0.0 0.0 0.00 0.00 0.00 100 1018.0
20260505092602 53 224 0.0 0.0 0.00 0.00 0.00 100 1017.9
20260505092501 53 224 0.0 0.0 0.00 0.00 0.00 100 1017.9
20260505092401 53 224 0.0 0.0 0.00 0.00 0.00 100 1018.0
20260505092301 53 224 0.0 0.0 0.00 0.00 0.00 100 1018.0
20260505092159 53 224 0.0 0.0 0.00 0.00 0.00 100 1017.9
20260505092059 53 224 0.0 0.0 0.00 0.00 0.00 100 1017.9
20260505091959 53 224 0.0 0.0 0.00 0.00 0.00 100 1017.9
20260505091901 53 224 0.0 0.0 0.00 0.00 0.00 100 1018.0
20260505091802 53 224 0.0 0.0 0.00 0.00 0.00 100 1018.0
20260505091659 53 224 0.0 0.0 0.00 0.00 0.00 100 1018.0
20260505091557 54 224 0.0 0.0 0.00 0.00 0.00 100 1017.9
20260505091455 53 224 0.0 0.0 0.00 0.00 0.00 100 1017.9
20260505091356 54 224 0.0 0.0 0.00 0.00 0.00 100 1017.9
20260505091256 54 224 0.0 0.0 0.00 0.00 0.00 100 1017.9
20260505091155 54 224 0.0 0.0 0.00 0.00 0.00 100 1017.8
20260505091057 54 224 0.0 0.0 0.00 0.00 0.00 100 1017.8
20260505090956 54 224 0.0 0.0 0.00 0.00 0.00 100 1017.8
20260505090920 54 224 0.0 0.0 0.00 0.00 0.00 100 1017.8
20260505090755 54 224 0.0 0.0 0.00 0.00 0.00 100 1017.8
20260505090656 54 224 0.0 0.0 0.00 0.00 0.00 100 1017.8
20260505090553 54 224 0.0 0.0 0.00 0.00 0.00 100 1017.8
20260505090453 54 224 0.0 0.0 0.00 0.00 0.00 100 1017.8
20260505090352 54 224 0.0 0.0 0.00 0.00 0.00 100 1017.8
20260505090251 54 224 0.0 0.0 0.00 0.00 0.00 100 1017.7
20260505090152 54 224 0.0 0.0 0.00 0.00 0.00 100 1017.8
20260505090049 54 224 0.0 0.0 0.00 0.00 0.00 100 1017.8
20260505085949 54 224 0.0 0.0 0.00 0.00 0.00 100 1017.8
20260505085846 54 224 0.0 0.0 0.00 0.00 0.00 100 1017.7
20260505085748 54 224 0.0 0.0 0.00 0.00 0.00 100 1017.8
20260505085647 54 224 0.0 0.0 0.00 0.00 0.00 100 1017.8
20260505085547 54 224 0.0 0.0 0.00 0.00 0.00 100 1017.8
20260505085445 54 224 0.0 0.0 0.00 0.00 0.00 100 1017.7
20260505085417 54 224 0.0 0.0 0.00 0.00 0.00 100 1017.8
20260505085243 54 224 0.0 0.0 0.00 0.00 0.00 100 1017.7
20260505085144 54 224 0.0 0.0 0.00 0.00 0.00 100 1017.8
20260505085044 54 224 0.0 0.0 0.00 0.00 0.00 100 1017.7
20260505084941 54 224 0.0 0.0 0.00 0.00 0.00 100 1017.8
20260505084841 54 224 0.0 0.0 0.00 0.00 0.00 100 1017.9
20260505084739 54 224 0.0 0.0 0.00 0.00 0.00 100 1017.8
20260505084640 54 224 0.0 0.0 0.00 0.00 0.00 100 1017.9
20260505084538 54 224 0.0 0.0 0.00 0.00 0.00 100 1017.9
20260505084439 54 224 0.0 0.0 0.00 0.00 0.00 100 1017.9
20260505084335 54 224 0.0 0.0 0.00 0.00 0.00 100 1017.8
20260505084237 54 224 0.0 0.0 0.00 0.00 0.00 100 1017.9
20260505084135 54 224 0.0 0.0 0.00 0.00 0.00 100 1017.8
20260505084034 54 224 0.0 0.0 0.00 0.00 0.00 100 1017.7
20260505083933 54 224 0.0 0.0 0.00 0.00 0.00 100 1017.7
20260505083832 54 224 0.0 0.0 0.00 0.00 0.00 100 1017.8
20260505083731 54 224 0.0 0.0 0.00 0.00 0.00 100 1017.8
20260505083632 54 224 0.0 0.0 0.00 0.00 0.00 100 1017.8
20260505083529 54 224 0.0 0.0 0.00 0.00 0.00 100 1017.8
20260505083430 54 224 0.0 0.0 0.00 0.00 0.00 100 1017.7
20260505083328 54 224 0.0 0.0 0.00 0.00 0.00 100 1017.7
20260505083227 54 224 0.0 0.0 0.00 0.00 0.00 100 1017.7
20260505083129 54 224 0.0 0.0 0.00 0.00 0.00 100 1017.7
20260505083025 54 224 0.0 0.0 0.00 0.00 0.00 100 1017.7
20260505082925 54 224 0.0 0.0 0.00 0.00 0.00 100 1017.7
20260505082725 54 224 0.0 0.0 0.00 0.00 0.00 100 1017.7
20260505082623 54 224 0.0 0.0 0.00 0.00 0.00 100 1017.7
20260505082522 54 224 0.0 0.0 0.00 0.00 0.00 100 1017.7
20260505082421 55 224 0.0 0.0 0.00 0.00 0.00 100 1017.7
20260505082219 55 224 0.0 0.0 0.00 0.00 0.00 100 1017.7
20260505082119 55 224 0.0 0.0 0.00 0.00 0.00 100 1017.8
20260505082018 55 224 0.0 0.0 0.00 0.00 0.00 100 1017.7
20260505081916 55 224 0.0 0.0 0.00 0.00 0.00 100 1017.7
20260505081717 55 224 0.0 0.0 0.00 0.00 0.00 100 1017.7
20260505081615 55 224 0.0 0.0 0.00 0.00 0.00 100 1017.7
20260505081514 55 224 0.0 0.0 0.00 0.00 0.00 100 1017.8
20260505081413 55 224 0.0 0.0 0.00 0.00 0.00 100 1017.7
20260505081211 55 224 0.0 0.0 0.00 0.00 0.00 100 1017.8
20260505081111 55 224 0.0 0.0 0.00 0.00 0.00 100 1017.7
20260505081009 55 224 0.0 0.0 0.00 0.00 0.00 100 1017.7
20260505080909 55 224 0.0 0.0 0.00 0.00 0.00 100 1017.8
20260505080708 55 224 0.0 0.0 0.00 0.00 0.00 100 1017.7
20260505080607 55 224 0.0 0.0 0.00 0.00 0.00 100 1017.7
20260505080506 55 224 0.0 0.0 0.00 0.00 0.00 100 1017.8
20260505080406 55 224 0.0 0.0 0.00 0.00 0.00 100 1017.8
20260505080203 55 224 0.0 0.0 0.00 0.00 0.00 100 1017.7
20260505080104 55 224 0.0 0.0 0.00 0.00 0.00 100 1017.5
20260505080004 55 224 0.0 0.0 0.00 0.00 0.00 100 1017.5
20260505075904 55 224 0.0 0.0 0.00 0.00 0.00 100 1017.6
20260505075704 55 224 0.0 0.0 0.00 0.00 0.00 100 1017.5
20260505075602 55 224 0.0 0.0 0.00 0.00 0.00 100 1017.5
20260505075501 55 224 0.0 0.0 0.00 0.00 0.00 100 1017.5
20260505075400 55 224 0.0 0.0 0.00 0.00 0.00 100 1017.6
20260505075259 55 224 0.0 0.0 0.00 0.00 0.00 100 1017.7
20260505075200 55 224 0.0 0.0 0.00 0.00 0.00 100 1017.6
20260505075057 55 224 0.0 0.0 0.00 0.00 0.00 100 1017.7
20260505074958 55 224 0.0 0.0 0.00 0.00 0.00 100 1017.6
20260505074917 55 224 0.0 0.0 0.00 0.00 0.00 100 1017.6
20260505074756 55 224 0.0 0.0 0.00 0.00 0.00 100 1017.6
20260505074655 55 224 0.0 0.0 0.00 0.00 0.00 100 1017.5
20260505074552 56 224 0.0 0.0 0.00 0.00 0.00 100 1017.6
20260505074454 56 224 0.0 0.0 0.00 0.00 0.00 100 1017.6
20260505074415 56 224 0.0 0.0 0.00 0.00 0.00 100 1017.6
20260505074252 56 224 0.0 0.0 0.00 0.00 0.00 100 1017.5
20260505074152 56 224 0.0 0.0 0.00 0.00 0.00 100 1017.5
20260505074050 56 224 0.0 0.0 0.00 0.00 0.00 100 1017.5
20260505073949 56 224 0.0 0.0 0.00 0.00 0.00 100 1017.6
20260505073850 56 224 0.0 0.0 0.00 0.00 0.00 100 1017.5
20260505073747 56 224 0.0 0.0 0.00 0.00 0.00 100 1017.4
20260505073648 56 224 0.0 0.0 0.00 0.00 0.00 100 1017.4
20260505073545 56 224 0.0 0.0 0.00 0.00 0.00 100 1017.5
20260505073445 56 224 0.0 0.0 0.00 0.00 0.00 100 1017.4
20260505073346 56 224 0.0 0.0 0.00 0.00 0.00 100 1017.4
20260505073242 56 224 0.0 0.0 0.00 0.00 0.00 100 1017.4
20260505073143 56 224 0.0 0.0 0.00 0.00 0.00 100 1017.4
20260505073044 56 224 0.0 0.0 0.00 0.00 0.00 100 1017.4
20260505072942 56 224 0.0 0.0 0.00 0.00 0.00 100 1017.4
20260505072844 56 224 0.0 0.0 0.00 0.00 0.00 100 1017.4
20260505072743 56 224 0.0 0.0 0.00 0.00 0.00 100 1017.4
20260505072642 56 224 0.0 0.0 0.00 0.00 0.00 100 1017.4
20260505072541 56 224 0.0 0.0 0.00 0.00 0.00 100 1017.4
20260505072441 56 224 0.0 0.0 0.00 0.00 0.00 100 1017.4
20260505072339 56 224 0.0 0.0 0.00 0.00 0.00 100 1017.4
20260505072240 56 224 0.0 0.0 0.00 0.00 0.00 100 1017.4
20260505072137 56 224 0.0 0.0 0.00 0.00 0.00 100 1017.4
20260505072038 56 224 0.0 0.0 0.00 0.00 0.00 100 1017.4
20260505071938 56 224 0.0 0.0 0.00 0.00 0.00 100 1017.4
20260505071835 56 224 0.0 0.0 0.00 0.00 0.00 100 1017.3
20260505071736 56 224 0.0 0.0 0.00 0.00 0.00 100 1017.3
20260505071634 56 224 0.0 0.0 0.00 0.00 0.00 100 1017.3
20260505071533 57 224 0.0 0.0 0.00 0.00 0.00 100 1017.4
20260505071433 57 224 0.0 0.0 0.00 0.00 0.00 100 1017.3
20260505071332 57 224 0.0 0.0 0.00 0.00 0.00 100 1017.3
20260505071230 57 224 0.0 0.0 0.00 0.00 0.00 100 1017.3
20260505071130 57 224 0.0 0.0 0.00 0.00 0.00 100 1017.3
20260505071028 57 224 0.0 0.0 0.00 0.00 0.00 100 1017.3
20260505070928 57 224 0.0 0.0 0.00 0.00 0.00 100 1017.4
20260505070826 57 224 0.0 0.0 0.00 0.00 0.00 100 1017.3
20260505070726 57 224 0.0 0.0 0.00 0.00 0.00 100 1017.3
20260505070625 57 224 0.0 0.0 0.00 0.00 0.00 100 1017.3
20260505070526 57 224 0.0 0.0 0.00 0.00 0.00 100 1017.3
20260505070425 57 224 0.0 0.0 0.00 0.00 0.00 100 1017.3
20260505070324 57 224 0.0 0.0 0.00 0.00 0.00 100 1017.4
20260505070221 57 224 0.0 0.0 0.00 0.00 0.00 100 1017.5
20260505070121 57 224 0.0 0.0 0.00 0.00 0.00 100 1017.3
20260505070021 57 224 0.0 0.0 0.00 0.00 0.00 100 1017.4
20260505065923 57 224 0.0 0.0 0.00 0.00 0.00 100 1017.5
20260505065822 57 224 0.0 0.0 0.00 0.00 0.00 100 1017.5
20260505065720 58 224 0.0 0.0 0.00 0.00 0.00 100 1017.4
20260505065617 58 224 0.0 0.0 0.00 0.00 0.00 100 1017.5
20260505065518 58 224 0.0 0.0 0.00 0.00 0.00 100 1017.5
20260505065417 58 224 0.0 0.0 0.00 0.00 0.00 100 1017.6
20260505065317 58 224 0.0 0.0 0.00 0.00 0.00 100 1017.6
20260505065216 58 224 0.0 0.0 0.00 0.00 0.00 100 1017.5
20260505065115 58 224 0.0 0.0 0.00 0.00 0.00 100 1017.5
20260505065016 58 224 0.0 0.0 0.00 0.00 0.00 100 1017.5
20260505064916 58 224 0.0 0.0 0.00 0.00 0.00 100 1017.4
20260505064816 58 224 0.0 0.0 0.00 0.00 0.00 100 1017.4
20260505064714 58 224 0.0 0.0 0.00 0.00 0.00 100 1017.5
20260505064615 58 224 0.0 0.0 0.00 0.00 0.00 100 1017.4
20260505064515 58 224 0.0 0.0 0.00 0.00 0.00 100 1017.4
20260505064414 58 224 0.0 0.0 0.00 0.00 0.00 100 1017.4
20260505064316 58 224 0.0 0.0 0.00 0.00 0.00 100 1017.5
20260505064216 58 224 0.0 0.0 0.00 0.00 0.00 100 1017.5
20260505064116 58 224 0.0 0.0 0.00 0.00 0.00 100 1017.5
20260505064016 58 224 0.0 0.0 0.00 0.00 0.00 100 1017.5
20260505063915 58 224 0.0 0.0 0.00 0.00 0.00 100 1017.5
20260505063813 58 224 0.0 0.0 0.00 0.00 0.00 100 1017.5
20260505063713 58 224 0.0 0.0 0.00 0.00 0.00 100 1017.6
20260505063614 58 224 0.0 0.0 0.00 0.00 0.00 100 1017.6
20260505063513 58 224 0.0 0.0 0.00 0.00 0.00 100 1017.5
20260505063412 58 224 0.0 0.0 0.00 0.00 0.00 100 1017.5
20260505063312 58 224 0.0 0.0 0.00 0.00 0.00 100 1017.5
20260505063213 58 224 0.0 0.0 0.00 0.00 0.00 100 1017.6
20260505063114 58 224 0.0 0.0 0.00 0.00 0.00 100 1017.6
20260505063014 58 224 0.0 0.0 0.00 0.00 0.00 100 1017.6
20260505062913 58 224 0.0 0.0 0.00 0.00 0.00 100 1017.6
20260505062813 58 224 0.0 0.0 0.00 0.00 0.00 100 1017.5
20260505062714 58 224 0.0 0.0 0.00 0.00 0.00 100 1017.5
20260505062612 59 224 0.0 0.0 0.00 0.00 0.00 100 1017.5
20260505062511 59 224 0.0 0.0 0.00 0.00 0.00 100 1017.5
20260505062411 59 224 0.0 0.0 0.00 0.00 0.00 100 1017.5
20260505062312 59 224 0.0 0.0 0.00 0.00 0.00 100 1017.5
20260505062210 59 224 0.0 0.0 0.00 0.00 0.00 100 1017.6
20260505062111 59 224 0.0 0.0 0.00 0.00 0.00 100 1017.6
20260505062010 59 224 0.0 0.0 0.00 0.00 0.00 100 1017.4
20260505061910 59 224 0.0 0.0 0.00 0.00 0.00 100 1017.6
20260505061811 59 224 0.0 0.0 0.00 0.00 0.00 100 1017.5
20260505061710 59 224 0.0 0.0 0.00 0.00 0.00 100 1017.7
20260505061613 59 224 0.0 0.0 0.00 0.00 0.00 100 1017.6
20260505061512 59 224 0.0 0.0 0.00 0.00 0.00 100 1017.6
20260505061415 59 224 0.0 0.0 0.00 0.00 0.00 100 1017.6
20260505061401 59 224 0.0 0.0 0.00 0.00 0.00 100 1017.5
20260505061209 59 224 0.0 0.0 0.00 0.00 0.00 100 1017.7
20260505061110 59 224 0.0 0.0 0.00 0.00 0.00 100 1017.7
20260505061010 59 224 0.0 0.0 0.00 0.00 0.00 100 1017.6
20260505060914 59 224 0.0 0.0 0.00 0.00 0.00 100 1017.7
20260505060900 59 224 0.0 0.0 0.00 0.00 0.00 100 1017.7
20260505060710 59 224 0.0 0.0 0.00 0.00 0.00 100 1017.8
20260505060609 59 224 0.0 0.0 0.00 0.00 0.00 100 1017.7
20260505060509 59 224 0.0 0.0 0.00 0.00 0.00 100 1017.8
20260505060413 59 224 0.0 0.0 0.00 0.00 0.00 100 1017.8
20260505060358 59 224 0.0 0.0 0.00 0.00 0.00 100 1017.9
20260505060208 59 224 0.0 0.0 0.00 0.00 0.00 100 1017.9
20260505060107 59 224 0.0 0.0 0.00 0.00 0.00 100 1017.9
20260505060008 59 224 0.0 0.0 0.00 0.00 0.00 100 1017.8
20260505055907 59 224 0.0 0.0 0.00 0.00 0.00 100 1017.9
20260505055808 59 224 0.0 0.0 0.00 0.00 0.00 100 1017.9
20260505055707 59 224 0.0 0.0 0.00 0.00 0.00 100 1018.0
20260505055608 60 224 0.0 0.0 0.00 0.00 0.00 100 1017.9
20260505055506 60 224 0.0 0.0 0.00 0.00 0.00 100 1018.0
20260505055408 60 224 0.0 0.0 0.00 0.00 0.00 100 1018.0
20260505055307 60 224 0.0 0.0 0.00 0.00 0.00 100 1017.9
20260505055206 60 224 0.0 0.0 0.00 0.00 0.00 100 1018.0
20260505055107 60 224 0.0 0.0 0.00 0.00 0.00 100 1018.0
20260505055007 60 224 0.0 0.0 0.00 0.00 0.00 100 1017.9
20260505054906 60 224 0.0 1.0 0.00 0.00 0.00 100 1018.0
20260505054808 60 224 0.0 1.0 0.00 0.00 0.00 100 1018.0
20260505054707 60 224 0.0 1.0 0.00 0.00 0.00 100 1017.9
20260505054608 60 224 0.0 1.0 0.00 0.00 0.00 100 1017.9
20260505054507 60 224 0.0 1.0 0.00 0.00 0.00 100 1018.0
20260505054408 60 224 0.0 3.0 0.00 0.00 0.00 100 1018.0
20260505054307 60 224 0.0 3.0 0.00 0.00 0.00 100 1017.9
20260505054208 60 224 1.0 3.0 0.00 0.00 0.00 100 1018.0
20260505054105 61 224 1.0 3.0 0.00 0.00 0.00 100 1018.0
20260505054002 61 224 1.0 4.0 0.00 0.00 0.00 100 1018.0
20260505053911 61 224 2.0 4.0 0.00 0.00 0.00 100 1018.0
20260505053857 61 224 2.0 4.0 0.00 0.00 0.00 100 1018.0
20260505053703 61 224 2.0 4.0 0.00 0.00 0.00 100 1018.1
20260505053601 61 224 2.0 4.0 0.00 0.00 0.00 100 1018.0
20260505053503 61 224 2.0 4.0 0.00 0.00 0.00 100 1018.1
20260505053401 61 224 2.0 4.0 0.00 0.00 0.00 100 1018.0
20260505053303 61 224 2.0 4.0 0.00 0.00 0.00 100 1018.0
20260505053201 61 224 2.0 4.0 0.00 0.00 0.00 100 1018.0
20260505053103 61 224 2.0 4.0 0.00 0.00 0.00 100 1018.0
20260505053002 61 224 2.0 3.0 0.00 0.00 0.00 100 1018.0
20260505052903 61 224 1.0 3.0 0.00 0.00 0.00 100 1018.1
20260505052801 60 224 1.0 3.0 0.00 0.00 0.00 100 1018.0
20260505052703 60 224 1.0 3.0 0.00 0.00 0.00 100 1018.1
20260505052601 60 224 1.0 3.0 0.00 0.00 0.00 100 1018.1
20260505052503 60 224 0.0 3.0 0.00 0.00 0.00 100 1018.0
20260505052402 60 224 0.0 3.0 0.00 0.00 0.00 100 1018.0
20260505052301 60 224 0.0 3.0 0.00 0.00 0.00 100 1018.0
20260505052204 60 224 0.0 0.0 0.00 0.00 0.00 100 1018.0
20260505052103 60 224 0.0 0.0 0.00 0.00 0.00 100 1018.0
20260505052002 60 224 0.0 0.0 0.00 0.00 0.00 100 1018.0
20260505051901 60 224 0.0 0.0 0.00 0.00 0.00 100 1018.0
20260505051802 60 224 0.0 0.0 0.00 0.00 0.00 100 1018.1
20260505051703 60 224 0.0 0.0 0.00 0.00 0.00 100 1018.1
20260505051602 60 224 0.0 0.0 0.00 0.00 0.00 100 1018.0
20260505051502 61 224 0.0 0.0 0.00 0.00 0.00 100 1018.1
20260505051401 61 224 0.0 0.0 0.00 0.00 0.00 100 1018.1
20260505051303 61 224 0.0 0.0 0.00 0.00 0.00 100 1018.1
20260505051202 61 224 0.0 0.0 0.00 0.00 0.00 100 1018.2
20260505051102 61 224 0.0 0.0 0.00 0.00 0.00 100 1018.1
20260505051002 61 224 0.0 0.0 0.00 0.00 0.00 100 1018.0
20260505050903 61 224 0.0 1.0 0.00 0.00 0.00 100 1018.1
20260505050802 61 224 0.0 2.0 0.00 0.00 0.00 100 1018.1
20260505050702 61 224 0.0 2.0 0.00 0.00 0.00 100 1018.0
20260505050602 61 224 1.0 2.0 0.00 0.00 0.00 100 1018.0
20260505050503 61 224 1.0 3.0 0.00 0.00 0.00 100 1018.0
20260505050401 61 224 1.0 3.0 0.00 0.00 0.00 100 1018.1
20260505050302 61 224 1.0 3.0 0.00 0.00 0.00 100 1018.1
20260505050202 61 224 1.0 3.0 0.00 0.00 0.00 100 1018.1
20260505050103 61 224 1.0 3.0 0.00 0.00 0.00 100 1018.1
20260505041736 62 224 0.0 3.0 0.00 0.00 0.00 100 1018.2
20260505041633 62 224 1.0 3.0 0.00 0.00 0.00 100 1018.2
20260505041533 62 224 1.0 3.0 0.00 0.00 0.00 100 1018.3
20260505041433 62 224 1.0 3.0 0.00 0.00 0.00 100 1018.2
20260505041332 62 224 1.0 3.0 0.00 0.00 0.00 100 1018.2
20260505041230 62 224 1.0 3.0 0.00 0.00 0.00 100 1018.2
20260505041129 62 224 1.0 3.0 0.00 0.00 0.00 100 1018.2
20260505041033 62 224 1.0 3.0 0.00 0.00 0.00 100 1018.2
20260505040927 62 224 2.0 3.0 0.00 0.00 0.00 100 1018.2
20260505040827 62 224 2.0 3.0 0.00 0.00 0.00 100 1018.2
20260505040725 62 224 2.0 3.0 0.00 0.00 0.00 100 1018.2
20260505040626 62 224 2.0 3.0 0.00 0.00 0.00 100 1018.2
20260505040526 62 224 1.0 3.0 0.00 0.00 0.00 100 1018.2
20260505040425 62 224 1.0 3.0 0.00 0.00 0.00 100 1018.2
20260505040321 62 224 1.0 3.0 0.00 0.00 0.00 100 1018.2
20260505040222 62 224 2.0 3.0 0.00 0.00 0.00 100 1018.3
20260505040122 62 224 1.0 3.0 0.00 0.00 0.00 100 1018.3
20260505040021 62 224 1.0 3.0 0.00 0.00 0.00 100 1018.2
20260505035920 62 224 1.0 3.0 0.00 0.00 0.00 100 1018.2
20260505035820 62 224 1.0 3.0 0.00 0.00 0.00 100 1018.3
20260505035718 62 224 1.0 3.0 0.00 0.00 0.00 100 1018.3
20260505035619 62 224 1.0 3.0 0.00 0.00 0.00 100 1018.1
20260505035516 62 224 1.0 3.0 0.00 0.00 0.00 100 1018.3
20260505035415 62 224 1.0 3.0 0.00 0.00 0.00 100 1018.3
20260505035313 62 224 1.0 3.0 0.00 0.00 0.00 100 1018.2
20260505035212 62 224 0.0 2.0 0.00 0.00 0.00 100 1018.2
20260505035112 62 224 1.0 2.0 0.00 0.00 0.00 100 1018.3
20260505035012 62 224 1.0 2.0 0.00 0.00 0.00 100 1018.3
20260505034910 62 224 1.0 2.0 0.00 0.00 0.00 100 1018.3
20260505034811 63 224 1.0 2.0 0.00 0.00 0.00 100 1018.3
20260505034707 63 224 1.0 2.0 0.00 0.00 0.00 100 1018.3
20260505034609 63 224 1.0 2.0 0.00 0.00 0.00 100 1018.2
20260505034508 63 224 0.0 2.0 0.00 0.00 0.00 100 1018.3
20260505034407 63 224 0.0 2.0 0.00 0.00 0.00 100 1018.3
20260505034309 63 224 0.0 2.0 0.00 0.00 0.00 100 1018.2
20260505034207 63 224 0.0 2.0 0.00 0.00 0.00 100 1018.2
20260505034108 63 224 0.0 2.0 0.00 0.00 0.00 100 1018.3
20260505034007 63 224 0.0 0.0 0.00 0.00 0.00 100 1018.3
20260505033905 63 224 0.0 0.0 0.00 0.00 0.00 100 1018.3
20260505033804 63 224 0.0 0.0 0.00 0.00 0.00 100 1018.2
20260505033704 63 224 0.0 3.0 0.00 0.00 0.00 100 1018.2
20260505033603 63 224 1.0 3.0 0.00 0.00 0.00 100 1018.3
20260505033505 63 224 1.0 3.0 0.00 0.00 0.00 100 1018.3
20260505033404 63 224 1.0 3.0 0.00 0.00 0.00 100 1018.3
20260505033303 63 224 1.0 3.0 0.00 0.00 0.00 100 1018.4
20260505033201 63 224 1.0 3.0 0.00 0.00 0.00 100 1018.4
20260505033102 63 224 1.0 3.0 0.00 0.00 0.00 100 1018.3
20260505033003 63 224 1.0 3.0 0.00 0.00 0.00 100 1018.4
20260505032902 63 224 2.0 3.0 0.00 0.00 0.00 100 1018.3
20260505032802 63 224 1.0 3.0 0.00 0.00 0.00 100 1018.4
20260505032703 63 224 1.0 3.0 0.00 0.00 0.00 100 1018.4
20260505032601 63 224 1.0 3.0 0.00 0.00 0.00 100 1018.4
20260505032501 63 224 1.0 3.0 0.00 0.00 0.00 100 1018.3
20260505032402 63 224 1.0 3.0 0.00 0.00 0.00 100 1018.4
20260505032304 63 224 0.0 3.0 0.00 0.00 0.00 100 1018.4
20260505032202 63 224 0.0 3.0 0.00 0.00 0.00 100 1018.4
20260505032102 63 224 0.0 3.0 0.00 0.00 0.00 100 1018.4
20260505032001 63 224 0.0 3.0 0.00 0.00 0.00 100 1018.4
20260505031900 63 224 0.0 2.0 0.00 0.00 0.00 100 1018.4
20260505031759 63 224 0.0 1.0 0.00 0.00 0.00 100 1018.4
20260505031657 63 224 0.0 3.0 0.00 0.00 0.00 100 1018.4
20260505031558 63 224 1.0 4.0 0.00 0.00 0.00 100 1018.4
20260505031455 63 224 1.0 4.0 0.00 0.00 0.00 100 1018.6
20260505031355 64 224 1.0 4.0 0.00 0.00 0.00 100 1018.4
20260505031255 64 224 1.0 4.0 0.00 0.00 0.00 100 1018.6
20260505031154 64 224 1.0 4.0 0.00 0.00 0.00 100 1018.6
20260505031052 64 224 2.0 4.0 0.00 0.00 0.00 100 1018.6
20260505030953 64 224 2.0 4.0 0.00 0.00 0.00 100 1018.6
20260505030851 64 224 2.0 4.0 0.00 0.00 0.00 100 1018.6
20260505030749 64 224 2.0 4.0 0.00 0.00 0.00 100 1018.6
20260505030649 64 224 2.0 4.0 0.00 0.00 0.00 100 1018.6
20260505030548 64 224 2.0 3.0 0.00 0.00 0.00 100 1018.6
20260505030449 64 224 1.0 3.0 0.00 0.00 0.00 100 1018.6
20260505030348 64 224 1.0 3.0 0.00 0.00 0.00 100 1018.6
20260505030245 64 224 1.0 3.0 0.00 0.00 0.00 100 1018.7
20260505030146 64 224 1.0 3.0 0.00 0.00 0.00 100 1018.6
20260505030046 64 224 1.0 3.0 0.00 0.00 0.00 100 1018.6
20260505025945 64 224 1.0 2.0 0.00 0.00 0.00 100 1018.7
20260505025847 64 224 1.0 2.0 0.00 0.00 0.00 100 1018.6
20260505025832 64 224 1.0 3.0 0.00 0.00 0.00 100 1018.6
20260505025642 64 224 1.0 3.0 0.00 0.00 0.00 100 1018.7
20260505025542 64 224 1.0 3.0 0.00 0.00 0.00 100 1018.7
20260505025441 64 224 1.0 3.0 0.00 0.00 0.00 100 1018.6
20260505025339 64 224 2.0 3.0 0.00 0.00 0.00 100 1018.7
20260505025139 64 224 2.0 4.0 0.00 0.00 0.00 100 1018.6
20260505025037 64 224 2.0 4.0 0.00 0.00 0.00 100 1018.6
20260505024936 64 224 2.0 4.0 0.00 0.00 0.00 100 1018.6
20260505024835 64 224 2.0 4.0 0.00 0.00 0.00 100 1018.6
20260505024635 64 224 2.0 4.0 0.00 0.00 0.00 100 1018.6
20260505024534 64 224 2.0 4.0 0.00 0.00 0.00 100 1018.6
20260505024432 64 224 2.0 4.0 0.00 0.00 0.00 100 1018.6
20260505024333 64 224 2.0 4.0 0.00 0.00 0.00 100 1018.6
20260505024129 64 224 2.0 3.0 0.00 0.00 0.00 100 1018.6
20260505024031 64 224 2.0 3.0 0.00 0.00 0.00 100 1018.6
20260505023927 64 224 2.0 3.0 0.00 0.00 0.00 100 1018.6
20260505023825 64 224 2.0 3.0 0.00 0.00 0.00 100 1018.6
20260505023625 64 224 2.0 3.0 0.00 0.00 0.00 100 1018.6
20260505023526 64 224 2.0 3.0 0.00 0.00 0.00 100 1018.6
20260505023423 64 224 2.0 3.0 0.00 0.00 0.00 100 1018.6
20260505023344 64 224 2.0 3.0 0.00 0.00 0.00 100 1018.6
20260505023328 64 224 2.0 3.0 0.00 0.00 0.00 100 1018.6
20260505023122 64 224 2.0 3.0 0.00 0.00 0.00 100 1018.7
20260505023030 64 224 1.0 3.0 0.00 0.00 0.00 100 1018.6
20260505022920 64 224 1.0 3.0 0.00 0.00 0.00 100 1018.6
20260505022819 64 224 1.0 3.0 0.00 0.00 0.00 100 1018.7
20260505022719 64 224 1.0 3.0 0.00 0.00 0.00 100 1018.6
20260505022618 64 224 1.0 3.0 0.00 0.00 0.00 100 1018.6
20260505022517 64 224 1.0 3.0 0.00 0.00 0.00 100 1018.6
20260505022416 64 224 1.0 3.0 0.00 0.00 0.00 100 1018.6
20260505022315 64 224 1.0 3.0 0.00 0.00 0.00 100 1018.6
20260505022215 64 224 1.0 3.0 0.00 0.00 0.00 100 1018.4
20260505022114 64 225 1.0 3.0 0.00 0.00 0.00 100 1018.6
20260505022014 64 224 1.0 3.0 0.00 0.00 0.00 100 1018.4
20260505021912 64 224 1.0 3.0 0.00 0.00 0.00 100 1018.6
20260505021811 64 224 1.0 3.0 0.00 0.00 0.00 100 1018.4
20260505021710 64 224 1.0 3.0 0.00 0.00 0.00 100 1018.6
20260505021609 64 224 1.0 3.0 0.00 0.00 0.00 100 1018.6
20260505021510 64 224 1.0 3.0 0.00 0.00 0.00 100 1018.6
20260505021407 64 224 1.0 3.0 0.00 0.00 0.00 100 1018.6
20260505021335 64 224 1.0 3.0 0.00 0.00 0.00 100 1018.6
20260505021206 64 225 1.0 2.0 0.00 0.00 0.00 100 1018.6
20260505021105 64 225 1.0 2.0 0.00 0.00 0.00 100 1018.4
20260505021005 65 225 1.0 3.0 0.00 0.00 0.00 100 1018.3
20260505020903 65 225 1.0 4.0 0.00 0.00 0.00 100 1018.4
20260505020803 65 225 2.0 4.0 0.00 0.00 0.00 100 1018.4
20260505020705 65 225 2.0 4.0 0.00 0.00 0.00 100 1018.3
20260505020603 65 225 2.0 4.0 0.00 0.00 0.00 100 1018.3
20260505020503 65 225 2.0 4.0 0.00 0.00 0.00 100 1018.4
20260505020404 65 225 2.0 4.0 0.00 0.00 0.00 100 1018.4
20260505020303 65 225 2.0 4.0 0.00 0.00 0.00 100 1018.4
20260505020203 65 225 2.0 4.0 0.00 0.00 0.00 100 1018.4
20260505020105 65 225 2.0 4.0 0.00 0.00 0.00 100 1018.4
20260505020003 65 225 2.0 4.0 0.00 0.00 0.00 100 1018.4
20260505015903 65 225 2.0 4.0 0.00 0.00 0.00 100 1018.3
20260505015803 65 225 2.0 4.0 0.00 0.00 0.00 100 1018.4
20260505015701 65 225 2.0 4.0 0.00 0.00 0.00 100 1018.3
20260505015603 65 225 2.0 4.0 0.00 0.00 0.00 100 1018.4
20260505015502 65 225 2.0 4.0 0.00 0.00 0.00 100 1018.3
20260505015401 65 225 2.0 3.0 0.00 0.00 0.00 100 1018.4
20260505015335 65 225 2.0 3.0 0.00 0.00 0.00 100 1018.4
20260505015201 65 225 2.0 5.0 0.00 0.00 0.00 100 1018.4
20260505015101 65 225 2.0 5.0 0.00 0.00 0.00 100 1018.4
20260505015001 65 225 3.0 5.0 0.00 0.00 0.00 100 1018.4
20260505014901 65 225 3.0 5.0 0.00 0.00 0.00 100 1018.3
20260505014803 66 225 3.0 5.0 0.00 0.00 0.00 100 1018.6
20260505014701 66 225 3.0 5.0 0.00 0.00 0.00 100 1018.3
20260505014602 66 225 3.0 5.0 0.00 0.00 0.00 100 1018.4
20260505014459 66 225 3.0 5.0 0.00 0.00 0.00 100 1018.4
20260505014359 66 225 3.0 5.0 0.00 0.00 0.00 100 1018.4
20260505014332 66 225 3.0 5.0 0.00 0.00 0.00 100 1018.4
20260505014159 66 225 3.0 5.0 0.00 0.00 0.00 100 1018.3
20260505014101 66 224 3.0 5.0 0.00 0.00 0.00 100 1018.3
20260505013959 66 224 3.0 5.0 0.00 0.00 0.00 100 1018.3
20260505013900 66 224 3.0 5.0 0.00 0.00 0.00 100 1018.4
20260505013759 66 224 3.0 5.0 0.00 0.00 0.00 100 1018.3
20260505013659 66 224 3.0 5.0 0.00 0.00 0.00 100 1018.4
20260505013600 66 224 3.0 6.0 0.00 0.00 0.00 100 1018.4
20260505013500 66 225 3.0 6.0 0.00 0.00 0.00 100 1018.4
20260505013359 66 225 3.0 6.0 0.00 0.00 0.00 100 1018.4
20260505013258 66 224 4.0 6.0 0.00 0.00 0.00 100 1018.3
20260505013157 66 224 4.0 7.0 0.00 0.00 0.00 100 1018.3
20260505013057 66 224 4.0 7.0 0.00 0.00 0.00 100 1018.3
20260505012958 66 225 3.0 7.0 0.00 0.00 0.00 100 1018.3
20260505012858 66 225 3.0 7.0 0.00 0.00 0.00 100 1018.3
20260505012757 66 224 3.0 7.0 0.00 0.00 0.00 100 1018.2
20260505012659 66 224 3.0 7.0 0.00 0.00 0.00 100 1018.2
20260505012555 66 224 3.0 7.0 0.00 0.00 0.00 100 1018.3
20260505012456 66 225 3.0 7.0 0.00 0.00 0.00 100 1018.2
20260505012356 66 224 3.0 7.0 0.00 0.00 0.00 100 1018.1
20260505012332 66 224 3.0 7.0 0.00 0.00 0.00 100 1018.2
20260505012154 66 220 3.0 5.0 0.00 0.00 0.00 100 1018.2
20260505012055 66 219 3.0 5.0 0.00 0.00 0.00 100 1018.1
20260505011954 66 219 3.0 5.0 0.00 0.00 0.00 100 1018.1
20260505011853 66 219 3.0 5.0 0.00 0.00 0.00 100 1018.1
20260505011755 66 219 3.0 7.0 0.00 0.00 0.00 100 1018.1
20260505011652 66 219 3.0 7.0 0.00 0.00 0.00 100 1018.0
20260505011552 66 219 3.0 7.0 0.00 0.00 0.00 100 1018.0
20260505011452 66 219 4.0 7.0 0.00 0.00 0.00 100 1018.0
20260505011350 66 219 4.0 8.0 0.00 0.00 0.00 100 1018.0
20260505011249 66 218 4.0 8.0 0.00 0.00 0.00 100 1018.0
20260505011149 66 217 4.0 8.0 0.00 0.00 0.00 100 1017.9
20260505011048 66 217 4.0 8.0 0.00 0.00 0.00 100 1018.0
20260505010945 66 216 4.0 8.0 0.00 0.00 0.00 100 1018.0
20260505010845 66 215 4.0 8.0 0.00 0.00 0.00 100 1017.8
20260505010745 66 225 4.0 8.0 0.00 0.00 0.00 100 1017.9
20260505010646 66 223 4.0 8.0 0.00 0.00 0.00 100 1017.8
20260505010543 66 223 4.0 8.0 0.00 0.00 0.00 100 1017.8
20260505010444 66 223 4.0 8.0 0.00 0.00 0.00 100 1017.7
20260505010342 66 225 4.0 7.0 0.00 0.00 0.00 100 1017.8
20260505010241 66 221 4.0 7.0 0.00 0.00 0.00 100 1017.8
20260505010143 66 227 3.0 7.0 0.00 0.00 0.00 100 1017.8
20260505010039 66 225 4.0 7.0 0.00 0.00 0.00 100 1017.7
20260505005939 66 225 4.0 7.0 0.00 0.00 0.00 100 1017.8
20260505005838 66 225 4.0 7.0 0.00 0.00 0.00 100 1017.7
20260505005637 66 225 4.0 7.0 0.00 0.00 0.00 100 1017.7
20260505005537 66 225 3.0 7.0 0.00 0.00 0.00 100 1017.7
20260505005436 66 223 3.0 7.0 0.00 0.00 0.00 100 1017.7
20260505005335 66 226 3.0 7.0 0.00 0.00 0.00 100 1017.7
20260505005133 66 225 4.0 7.0 0.00 0.00 0.00 100 1017.6
20260505005032 66 225 3.0 7.0 0.00 0.00 0.00 100 1017.6
20260505004933 66 225 3.0 7.0 0.00 0.00 0.00 100 1017.7
20260505004829 66 225 4.0 7.0 0.00 0.00 0.00 100 1017.6
20260505004629 66 225 4.0 7.0 0.00 0.00 0.00 100 1017.7
20260505004527 66 225 4.0 7.0 0.00 0.00 0.00 100 1017.6
20260505004427 66 225 4.0 7.0 0.00 0.00 0.00 100 1017.7
20260505004327 66 224 4.0 7.0 0.00 0.00 0.00 100 1017.7
20260505004126 66 227 4.0 7.0 0.00 0.00 0.00 100 1017.8
20260505004033 66 227 4.0 7.0 0.00 0.00 0.00 100 1017.7
20260505003924 66 225 4.0 7.0 0.00 0.00 0.00 100 1017.7
20260505003824 66 225 4.0 7.0 0.00 0.00 0.00 100 1017.7
20260505003621 66 225 4.0 7.0 0.00 0.00 0.00 100 1017.6
20260505003522 66 225 4.0 7.0 0.00 0.00 0.00 100 1017.6
20260505003422 66 225 4.0 7.0 0.00 0.00 0.00 100 1017.6
20260505003319 66 225 4.0 7.0 0.00 0.00 0.00 100 1017.5
20260505003222 66 224 4.0 7.0 0.00 0.00 0.00 100 1017.6
20260505003117 66 224 4.0 7.0 0.00 0.00 0.00 100 1017.6
20260505003021 66 225 4.0 7.0 0.00 0.00 0.00 100 1017.5
20260505002917 66 224 3.0 7.0 0.00 0.00 0.00 100 1017.5
20260505002816 66 223 3.0 7.0 0.00 0.00 0.00 100 1017.5
20260505002617 66 224 4.0 7.0 0.00 0.00 0.00 100 1017.6
20260505002519 66 224 4.0 7.0 0.00 0.00 0.00 100 1017.6
20260505002418 66 223 4.0 7.0 0.00 0.00 0.00 100 1017.5
20260505002317 66 225 4.0 7.0 0.00 0.00 0.00 100 1017.5
20260505002114 66 224 4.0 7.0 0.00 0.00 0.00 100 1017.5
20260505002011 66 223 4.0 7.0 0.00 0.00 0.00 100 1017.6
20260505001912 67 224 4.0 7.0 0.00 0.00 0.00 100 1017.5
20260505001810 66 224 4.0 7.0 0.00 0.00 0.00 100 1017.6
20260505001708 66 224 3.0 7.0 0.00 0.00 0.00 100 1017.5
20260505001607 66 225 3.0 7.0 0.00 0.00 0.00 100 1017.6
20260505001507 66 224 3.0 7.0 0.00 0.00 0.00 100 1017.5
20260505001408 66 227 3.0 7.0 0.00 0.00 0.00 100 1017.5
20260505001307 66 226 3.0 7.0 0.00 0.00 0.00 100 1017.5
20260505001209 66 226 3.0 6.0 0.00 0.00 0.00 100 1017.5
20260505001106 66 226 3.0 6.0 0.00 0.00 0.00 100 1017.5
20260505001005 67 225 3.0 6.0 0.00 0.00 0.00 100 1017.5
20260505000906 67 225 3.0 6.0 0.00 0.00 0.00 100 1017.4
20260505000806 67 225 3.0 6.0 0.00 0.00 0.00 100 1017.5
20260505000706 67 225 3.0 6.0 0.00 0.00 0.00 100 1017.5
20260505000604 67 227 3.0 6.0 0.00 0.00 0.00 100 1017.5
20260505000503 67 227 3.0 6.0 0.00 0.00 0.00 100 1017.5
20260505000405 67 226 3.0 5.0 0.00 0.00 0.00 100 1017.5
20260505000303 67 226 3.0 6.0 0.00 0.00 0.00 100 1017.4
20260505000204 67 226 3.0 6.0 0.00 0.00 0.00 100 1017.5
20260505000004 67 226 3.0 6.0 0.00 0.00 0.00 100 1017.5
20260504235904 67 226 3.0 6.0 0.00 0.00 0.00 100 1017.5
20260504235803 67 226 3.0 6.0 0.00 0.00 0.00 100 1017.4
20260504235703 67 226 3.0 6.0 0.00 0.00 0.00 100 1017.4
20260504235603 67 226 3.0 6.0 0.00 0.00 0.00 100 1017.4
20260504235503 67 226 3.0 6.0 0.00 0.00 0.00 100 1017.5
20260504235404 67 225 3.0 6.0 0.00 0.00 0.00 100 1017.6
20260504235326 67 225 3.0 6.0 0.00 0.00 0.00 100 1017.5
20260504235203 67 225 3.0 6.0 0.00 0.00 0.00 100 1017.5
20260504235103 67 221 3.0 6.0 0.00 0.00 0.00 100 1017.4
20260504235004 67 220 3.0 6.0 0.00 0.00 0.00 100 1017.5
20260504234903 67 219 3.0 6.0 0.00 0.00 0.00 100 1017.4
20260504234823 67 219 3.0 6.0 0.00 0.00 0.00 100 1017.3
20260504234702 67 219 3.0 6.0 0.00 0.00 0.00 100 1017.4
20260504234601 67 219 3.0 6.0 0.00 0.00 0.00 100 1017.4
20260504234500 67 219 3.0 6.0 0.00 0.00 0.00 100 1017.4
20260504234359 67 219 3.0 6.0 0.00 0.00 0.00 100 1017.4
20260504234301 67 218 3.0 6.0 0.00 0.00 0.00 100 1017.4
20260504234200 67 223 3.0 5.0 0.00 0.00 0.00 100 1017.3
20260504234057 67 223 3.0 7.0 0.00 0.00 0.00 100 1017.3
20260504233958 67 223 4.0 7.0 0.00 0.00 0.00 100 1017.3
20260504233858 67 223 3.0 8.0 0.00 0.00 0.00 100 1017.3
20260504233755 67 223 4.0 8.0 0.00 0.00 0.00 100 1017.4
20260504233656 67 223 4.0 8.0 0.00 0.00 0.00 100 1017.3
20260504233554 67 223 4.0 8.0 0.00 0.00 0.00 100 1017.2
20260504233451 67 223 4.0 8.0 0.00 0.00 0.00 100 1017.3
20260504233352 67 223 4.0 8.0 0.00 0.00 0.00 100 1017.3
20260504233248 67 222 4.0 8.0 0.00 0.00 0.00 100 1017.3
20260504233150 67 222 4.0 8.0 0.00 0.00 0.00 100 1017.2
20260504233049 67 224 4.0 8.0 0.00 0.00 0.00 100 1017.3
20260504232947 67 223 3.0 8.0 0.00 0.00 0.00 100 1017.2
20260504232845 67 219 3.0 8.0 0.00 0.00 0.00 100 1017.2
20260504232745 67 219 3.0 8.0 0.00 0.00 0.00 100 1017.1
20260504232646 68 218 3.0 8.0 0.00 0.00 0.00 100 1017.2
20260504232543 68 217 3.0 8.0 0.00 0.00 0.00 100 1017.2
20260504232443 68 217 3.0 8.0 0.00 0.00 0.00 100 1017.2
20260504232343 68 227 3.0 8.0 0.00 0.00 0.00 100 1017.2
20260504232321 68 227 3.0 8.0 0.00 0.00 0.00 100 1017.2
20260504232142 68 227 3.0 8.0 0.00 0.00 0.00 100 1017.2
20260504232042 68 227 3.0 8.0 0.00 0.00 0.00 100 1017.1
20260504231939 68 219 4.0 7.0 0.00 0.00 0.00 100 1017.1
20260504231840 68 218 4.0 9.0 0.00 0.00 0.00 100 1017.2
20260504231738 68 218 4.0 9.0 0.00 0.00 0.00 100 1017.2
20260504231639 68 217 4.0 9.0 0.00 0.00 0.00 100 1017.2
20260504231538 68 217 4.0 9.0 0.00 0.00 0.00 100 1017.3
20260504231438 68 227 4.0 9.0 0.00 0.00 0.00 100 1017.3
20260504231337 68 227 4.0 9.0 0.00 0.00 0.00 100 1017.2
20260504231315 68 226 4.0 9.0 0.00 0.00 0.00 100 1017.2
20260504231137 68 226 4.0 9.0 0.00 0.00 0.00 100 1017.3
20260504231035 68 223 4.0 9.0 0.00 0.00 0.00 100 1017.2
20260504230936 68 223 4.0 9.0 0.00 0.00 0.00 100 1017.2
20260504230835 68 228 4.0 8.0 0.00 0.00 0.00 100 1017.2
20260504230736 68 227 4.0 8.0 0.00 0.00 0.00 100 1017.2
20260504230637 68 227 4.0 8.0 0.00 0.00 0.00 100 1017.2
20260504230537 68 227 4.0 8.0 0.00 0.00 0.00 100 1017.2
20260504230435 68 227 4.0 8.0 0.00 0.00 0.00 100 1017.2
20260504230335 68 227 4.0 8.0 0.00 0.00 0.00 100 1017.2
20260504230235 68 218 4.0 8.0 0.00 0.00 0.00 100 1017.3
20260504230135 68 217 4.0 8.0 0.00 0.00 0.00 100 1017.3
20260504230033 68 224 3.0 8.0 0.00 0.00 0.00 100 1017.3
20260504225934 69 236 3.0 7.0 0.00 0.00 0.00 100 1017.3
20260504225834 69 236 3.0 7.0 0.00 0.00 0.00 100 1017.2
20260504225734 69 237 3.0 7.0 0.00 0.00 0.00 100 1017.3
20260504225635 69 217 3.0 7.0 0.00 0.00 0.00 100 1017.2
20260504225533 69 217 3.0 7.0 0.00 0.00 0.00 100 1017.3
20260504225434 69 216 3.0 7.0 0.00 0.00 0.00 100 1017.3
20260504225333 69 216 3.0 7.0 0.00 0.00 0.00 100 1017.3
20260504225234 69 207 3.0 5.0 0.00 0.00 0.00 100 1017.2
20260504225134 69 204 3.0 5.0 0.00 0.00 0.00 100 1017.3
20260504225031 69 203 2.0 5.0 0.00 0.00 0.00 100 1017.2
20260504224930 69 138 2.0 5.0 0.00 0.00 0.00 100 1017.2
20260504224831 69 213 2.0 5.0 0.00 0.00 0.00 100 1017.2
20260504224732 69 213 2.0 5.0 0.00 0.00 0.00 100 1017.2
20260504224631 69 213 3.0 7.0 0.00 0.00 0.00 100 1017.2
20260504224531 69 211 2.0 7.0 0.00 0.00 0.00 100 1017.2
20260504224430 69 211 3.0 7.0 0.00 0.00 0.00 100 1017.2
20260504224331 69 211 3.0 8.0 0.00 0.00 0.00 100 1017.3
20260504224314 69 210 3.0 8.0 0.00 0.00 0.00 100 1017.3
20260504224131 69 210 3.0 8.0 0.00 0.00 0.00 100 1017.2
20260504224031 69 209 3.0 8.0 0.00 0.00 0.00 100 1017.3
20260504223931 69 214 3.0 8.0 0.00 0.00 0.00 100 1017.3